GFSGL_prec_cloud_060.txt.gz
Cloud_Cover
0 0 0 0 0 0 0 0 0 0 0 0 0 0 0 0 1 5 5 5 6 61 80 67 5 5 5 5 5 5 5 5 5 5 5 4 5 3 0 0 0 0 0
0 0 0 0 0 0 0 0 0 0 0 0 0 4 5 5 5 5 5 78 100 100 100 97 81 59 30 18 36 50 27 5 5 5 5 5 5 0 0 0 0 0 0
0 0 0 0 0 0 0 0 0 0 0 0 4 5 5 5 6 27 99 100 100 100 100 100 100 100 100 89 22 70 100 78 10 5 5 5 5 5 64 0 0 1 0
0 0 0 0 0 0 0 0 0 0 2 5 5 6 10 75 100 100 100 100 100 91 94 92 99 100 100 100 80 82 10 34 22 5 16 41 23 3 5 1 7 44 0
4 5 5 5 5 2 0 0 0 0 5 5 69 94 100 100 100 91 94 100 100 100 100 100 100 96 99 96 92 98 98 91 100 100 41 85 12 55 42 3 14 5 24
5 5 4 0 0 0 0 0 5 5 5 23 71 100 100 100 90 100 100 100 100 100 100 100 100 100 100 100 100 100 100 83 100 100 47 100 29 22 63 37 99 44 52
1 0 0 0 0 0 0 5 5 5 6 40 100 100 100 100 100 100 100 100 100 100 100 100 100 100 100 100 100 81 77 100 100 100 100 99 75 26 100 100 100 50 6
0 0 0 0 0 1 5 5 17 23 99 100 100 100 100 100 100 100 98 100 100 100 100 100 100 100 100 100 100 99 100 89 53 36 47 86 98 87 100 100 100 96 87
0 0 0 0 1 5 5 78 100 82 100 100 100 100 100 100 98 100 100 100 100 100 100 100 100 100 100 100 100 100 89 90 73 36 83 88 97 100 100 100 100 100 100
0 0 0 0 5 37 99 100 100 100 100 100 100 100 100 100 100 100 100 100 100 100 100 100 100 100 100 85 100 72 83 64 12 37 100 92 99 100 100 100 100 100 97
0 0 0 5 8 100 100 100 100 100 100 100 100 100 100 100 100 100 100 100 100 100 100 100 100 100 100 100 100 76 31 16 89 100 100 100 100 100 100 100 100 100 100
0 2 5 5 5 100 100 100 100 100 100 100 100 100 100 100 100 100 100 100 100 100 100 100 100 100 100 100 96 70 99 100 99 100 100 100 100 100 100 100 100 100 100
1 5 5 16 88 100 100 100 100 100 100 100 100 100 100 100 100 100 100 100 100 100 100 94 96 100 100 91 86 99 100 100 100 100 100 100 100 100 100 100 100 100 100
5 5 30 100 100 100 100 100 100 100 100 100 100 100 100 100 100 100 100 100 100 100 100 92 16 15 23 40 86 92 100 100 100 100 100 100 100 100 100 100 100 100 99
5 39 100 100 100 100 100 100 100 100 100 100 100 100 100 100 100 100 100 100 100 100 100 100 28 5 5 19 85 100 100 100 100 99 100 98 100 100 100 100 100 97 100
19 93 100 100 99 100 100 100 100 100 100 100 100 100 100 100 100 100 100 100 100 100 100 100 71 37 5 78 89 100 100 100 100 100 100 100 100 100 100 100 100 100 100
10 100 66 98 100 100 100 100 100 100 100 100 100 100 100 100 100 100 100 100 100 100 100 100 35 42 67 17 100 100 100 100 100 100 100 100 100 100 100 100 100 100 100
25 99 100 100 100 100 100 100 100 100 100 100 100 100 100 100 100 100 100 100 100 100 100 100 100 100 100 73 12 17 100 83 100 100 100 100 100 100 100 100 100 100 100
100 100 100 100 100 100 100 100 100 100 100 100 100 100 100 100 100 100 100 100 100 100 100 100 100 100 100 100 100 100 52 6 70 100 100 93 68 79 98 100 100 100 99
100 97 100 100 100 100 100 100 100 100 100 100 100 100 100 100 100 100 100 100 100 100 100 100 100 100 100 100 100 100 100 40 76 30 55 23 17 16 36 100 100 100 100
100 100 100 100 100 100 100 100 100 100 100 100 100 98 100 100 100 100 100 100 100 100 100 100 100 100 100 100 100 100 100 100 100 100 29 94 34 100 38 97 100 100 99
100 100 100 100 100 100 100 100 100 100 100 100 100 82 99 100 100 100 100 100 100 100 100 100 100 100 100 100 100 100 100 100 100 100 100 100 100 100 98 28 100 100 95
100 100 100 100 100 100 100 100 100 100 100 100 100 99 100 100 100 100 100 100 100 100 100 100 100 100 100 100 100 100 100 100 100 100 100 100 100 100 100 83 98 78 95
100 100 100 100 100 100 100 100 100 100 100 100 100 100 100 100 100 100 100 100 100 100 100 100 100 100 100 100 100 100 100 100 100 100 100 100 100 100 100 100 98 86 100
100 100 100 100 100 100 100 100 100 100 100 100 100 100 100 100 100 100 100 100 100 100 100 100 100 100 100 100 100 100 100 100 90 100 100 100 100 98 100 100 89 90 49
100 100 100 100 100 100 100 100 100 100 100 100 100 100 100 100 100 100 100 100 100 100 100 100 100 100 100 100 100 100 100 100 55 100 100 100 100 100 96 91 99 100 100

GFSGL_prec_cloud_063.txt.gz
Cloud_Cover
0 0 2 4 5 5 4 0 0 0 0 0 0 0 0 5 5 5 5 5 5 9 16 74 98 100 100 100 100 92 71 83 56 15 20 6 5 6 5 4 4 3 0
5 5 5 5 3 0 0 0 0 0 0 0 0 4 5 5 5 5 5 5 12 39 74 100 100 100 100 100 100 100 100 96 55 63 32 60 31 5 5 5 0 0 0
5 5 5 2 0 0 0 0 0 0 0 0 5 5 5 5 5 5 70 100 99 100 100 100 100 100 100 93 100 100 100 95 100 84 92 93 77 34 5 4 2 0 0
1 4 5 4 1 0 0 0 0 0 2 5 5 5 5 5 52 100 100 96 100 95 96 100 100 100 100 100 100 91 85 68 34 100 97 83 27 12 5 5 2 5 0
5 5 5 3 2 0 0 0 0 5 5 5 5 5 30 60 100 100 100 100 100 100 100 100 100 100 100 100 100 99 99 100 100 100 100 100 58 27 6 32 8 8 0
5 5 3 0 0 0 0 0 5 5 5 5 5 45 83 83 100 100 100 100 100 100 100 100 100 100 100 100 100 100 100 100 100 100 100 100 100 82 43 5 13 5 10
0 0 0 0 0 0 4 5 5 6 14 55 64 100 100 100 83 100 100 100 100 99 100 100 100 100 100 100 100 100 100 100 100 100 100 100 87 100 86 80 56 23 13
0 0 0 0 0 2 5 5 23 98 100 100 100 100 100 100 100 80 97 100 62 98 100 100 100 100 100 100 100 100 100 100 100 100 100 100 100 100 100 91 41 60 58
0 0 0 0 0 5 5 7 100 100 100 100 100 100 100 100 100 100 94 100 92 100 100 100 100 100 100 100 100 100 100 100 96 91 86 100 50 100 50 82 98 100 100
0 0 0 0 5 5 5 74 100 100 100 100 100 100 100 91 100 100 100 100 100 100 100 100 100 100 100 100 100 100 100 81 100 81 70 14 96 89 100 16 97 100 100
5 5 5 5 5 35 61 100 99 100 100 100 100 100 100 100 100 100 100 100 100 100 100 100 100 100 100 91 97 100 96 100 99 21 62 51 36 89 58 62 97 100 100
5 5 5 5 8 99 100 100 100 100 100 100 100 100 100 100 100 100 89 100 100 100 100 100 100 100 98 73 96 93 100 100 59 63 65 100 100 100 100 99 100 100 100
5 5 5 5 56 100 100 100 98 100 100 100 100 100 100 100 100 100 100 100 100 100 100 100 100 78 35 24 17 91 99 99 100 89 100 100 100 100 100 100 100 100 100
5 5 5 40 100 100 100 100 100 100 100 100 100 100 100 100 100 100 100 100 100 100 100 100 100 100 14 14 20 98 93 99 100 100 100 100 100 100 100 100 100 100 100
5 5 5 98 100 100 100 100 100 100 100 100 100 100 100 100 100 100 100 100 100 100 100 100 100 92 16 11 44 99 100 100 100 100 100 100 100 100 100 100 100 100 100
5 5 9 100 100 100 100 100 100 100 100 100 100 100 100 100 100 100 100 100 100 100 100 100 90 98 69 57 93 96 100 100 100 81 100 100 100 100 100 100 100 100 100
5 7 89 100 100 100 100 100 100 100 100 100 100 100 100 100 100 100 100 100 100 100 100 100 100 100 100 70 51 84 100 100 100 100 100 100 100 100 100 100 100 100 100
5 78 100 100 100 100 100 100 100 100 100 100 100 100 100 100 100 100 100 100 100 100 100 100 100 100 100 100 93 99 100 100 100 91 96 100 100 100 100 100 100 100 100
15 100 100 100 100 100 100 100 100 100 100 100 100 100 100 100 100 100 100 100 100 100 100 100 100 100 100 100 100 98 98 93 99 100 100 100 100 100 100 100 100 100 100
99 100 100 100 100 100 100 100 100 100 100 100 100 100 100 100 100 100 100 100 100 100 100 100 100 100 100 100 100 100 100 91 86 96 90 95 100 78 100 100 100 99 100
100 100 100 98 100 100 100 100 100 100 100 100 100 100 100 100 100 100 100 100 100 100 100 100 100 100 100 100 100 100 100 100 100 35 66 81 68 89 54 98 100 100 100
100 100 100 95 100 100 100 100 100 100 100 100 100 100 100 100 100 100 100 100 100 100 100 100 100 100 100 100 100 100 100 100 100 100 88 41 54 47 98 81 100 100 99
100 100 100 100 100 100 100 100 100 100 100 100 100 100 100 100 100 100 100 100 100 100 100 100 100 100 100 100 100 100 100 100 100 100 100 100 100 33 100 97 100 78 100
100 100 94 100 100 100 100 100 100 100 100 100 100 100 100 100 100 100 100 100 100 100 100 100 100 100 100 100 100 100 100 100 100 100 100 100 100 100 100 100 95 98 40
100 100 100 100 100 100 100 100 100 100 100 100 100 100 100 100 100 100 100 100 100 100 100 100 100 100 100 100 100 100 100 100 94 100 100 100 100 100 98 99 100 85 42
100 100 100 100 100 100 100 100 100 100 100 100 100 100 100 100 100 100 100 100 100 100 100 100 100 100 100 100 100 100 100 100 96 97 100 100 100 100 100 64 100 100 78

GFSGL_prec_cloud_066.txt.gz
Cloud_Cover
5 5 5 5 5 5 5 2 0 0 0 0 0 0 0 0 0 5 5 15 47 87 99 100 100 100 100 100 100 100 100 100 100 87 99 84 82 66 21 5 5 5 5
41 88 78 12 5 5 0 0 0 0 0 0 0 0 0 4 5 5 40 77 100 100 100 100 92 99 100 100 100 100 92 99 100 100 97 100 78 87 88 21 8 5 5
56 7 5 5 5 5 1 1 0 0 0 0 0 0 5 5 10 50 82 73 100 100 100 86 91 100 100 100 100 100 100 100 100 100 100 100 100 52 58 72 10 1 5
6 5 5 5 5 5 1 0 0 0 0 0 0 5 8 52 91 100 93 100 100 100 94 100 100 100 100 100 100 100 100 100 100 100 100 100 100 100 84 85 62 5 5
5 5 5 1 0 0 0 0 0 0 0 4 5 12 88 100 100 100 100 100 100 100 100 100 100 100 100 100 100 78 100 100 100 100 87 97 100 100 54 42 92 87 12
0 0 0 0 0 0 0 0 0 1 5 5 58 100 100 100 100 100 100 100 100 100 91 73 100 86 84 100 100 100 100 100 100 96 41 93 92 100 100 100 47 72 100
4 4 2 0 0 0 0 0 1 5 16 100 100 100 100 100 100 100 100 100 99 100 96 92 97 93 100 100 100 100 100 100 100 100 92 100 100 100 100 100 98 57 100
99 62 5 1 0 0 0 2 5 15 96 100 100 100 100 95 100 100 100 100 98 100 99 94 100 100 100 100 100 100 100 99 99 100 100 100 100 100 100 100 90 98 75
39 5 1 0 0 0 5 5 12 91 100 100 100 100 100 99 100 100 100 100 100 100 100 100 100 100 100 100 100 100 100 100 100 100 100 100 100 100 100 100 97 98 30
0 0 0 0 0 4 5 11 100 100 100 100 97 100 100 100 100 100 100 81 100 96 100 100 100 100 100 100 100 100 100 100 100 85 100 100 100 100 100 100 100 47 68
0 1 5 5 1 5 11 99 100 100 100 100 100 100 100 100 100 100 97 100 100 100 100 100 100 100 100 100 100 98 75 98 91 98 100 100 96 81 95 88 36 44 72
4 5 5 5 3 5 84 100 100 100 100 100 100 100 100 100 100 96 100 100 100 100 100 100 100 100 100 100 93 82 88 91 67 53 100 98 96 25 97 76 24 22 40
5 5 5 5 5 59 100 100 100 100 100 100 100 100 100 100 100 100 100 100 100 100 100 100 100 100 100 99 16 85 48 64 99 100 98 99 94 97 100 82 34 59 55
5 63 72 5 27 100 100 100 100 100 100 100 100 100 100 100 100 100 100 100 100 100 100 100 100 100 98 6 9 63 40 85 99 100 100 100 99 80 100 100 100 100 100
67 97 55 5 92 100 100 100 100 100 100 100 100 100 100 100 100 100 100 100 99 100 100 100 100 99 100 90 100 94 100 100 100 100 100 100 100 100 100 100 100 100 100
82 100 42 87 100 100 100 100 100 100 100 100 100 100 100 100 100 100 100 100 98 100 100 100 100 100 100 87 73 92 100 100 100 100 100 100 100 100 100 100 100 100 100
5 33 54 100 100 100 100 100 100 100 100 100 100 100 100 100 100 100 100 99 100 96 100 100 100 100 100 100 92 100 100 100 100 100 100 100 100 100 100 100 100 100 100
5 20 99 100 100 100 100 100 100 100 100 100 100 100 100 100 100 100 100 93 95 100 100 100 100 100 100 100 100 100 100 100 100 100 100 100 100 100 100 100 100 100 100
34 72 100 100 100 100 100 100 100 100 100 100 100 100 100 100 98 100 100 100 100 100 100 100 100 100 100 100 100 100 100 100 100 100 100 100 100 100 100 100 100 100 100
89 100 100 100 100 100 100 100 100 100 100 100 100 100 100 100 100 100 100 100 100 99 100 100 100 100 100 100 100 100 100 100 99 100 100 100 100 100 100 100 100 100 100
100 100 100 100 100 100 100 100 100 100 100 100 100 100 98 100 100 100 100 100 100 100 100 100 100 100 100 100 100 100 100 100 100 96 99 86 100 100 100 100 100 100 100
100 100 100 100 100 100 100 100 100 100 100 100 100 100 100 100 100 100 100 100 100 100 100 100 100 100 100 100 100 100 100 100 100 96 88 90 94 100 100 100 100 100 100
100 100 100 100 100 100 100 100 100 100 100 100 100 100 100 100 100 100 100 100 100 100 100 100 100 100 100 100 100 100 100 100 100 100 76 100 96 85 96 100 66 98 100
100 100 100 100 100 100 100 100 100 100 100 100 100 100 100 100 100 100 100 100 100 100 100 100 100 100 100 100 100 100 100 100 100 100 96 96 24 99 54 100 95 54 68
100 100 100 100 100 100 100 100 100 100 100 100 100 100 100 100 100 100 100 100 100 100 100 100 100 100 100 100 100 100 94 100 100 100 100 100 100 92 26 92 100 71 97
100 100 100 100 100 100 100 100 100 100 100 100 100 100 100 100 100 100 100 100 100 100 100 100 100 100 100 100 100 100 100 100 100 100 100 100 100 100 100 100 100 100 100

GFSGL_prec_cloud_069.txt.gz
Cloud_Cover
94 100 100 100 88 61 25 5 5 5 5 5 5 3 0 0 0 0 3 5 5 52 100 100 100 100 100 100 100 100 100 100 89 49 47 13 10 5 35 98 5 5 5
100 100 100 94 60 48 52 8 5 5 5 5 1 0 0 0 0 5 5 22 87 100 100 100 100 100 100 82 81 85 93 92 86 75 70 100 72 5 5 50 89 14 81
5 5 5 4 5 4 4 0 0 0 0 0 0 0 0 2 5 19 80 100 100 100 100 100 100 97 100 100 96 84 68 76 70 98 99 100 89 56 5 5 5 5 5
0 0 0 0 0 0 0 0 0 2 4 5 0 0 4 6 51 100 100 100 100 100 100 100 100 97 88 54 100 100 100 80 84 100 95 92 99 66 84 97 88 5 5
0 0 0 9 26 52 74 86 91 90 85 5 4 5 5 19 30 100 100 100 100 100 100 100 100 100 100 100 100 98 100 100 100 100 100 100 99 6 8 59 99 82 30
25 100 100 100 100 100 99 39 5 1 0 5 5 11 85 100 100 100 100 100 100 100 100 100 100 89 93 100 100 100 100 100 100 100 100 100 100 78 92 68 80 48 94
100 100 100 100 61 5 3 0 0 0 5 10 28 92 100 100 100 100 100 100 100 100 100 100 100 91 100 82 88 93 100 100 100 100 100 100 100 100 99 80 58 96 100
100 100 99 42 5 2 0 0 3 5 5 29 80 100 100 99 100 100 100 100 87 99 100 100 99 93 100 100 100 100 100 100 100 100 99 100 100 100 100 100 100 100 100
98 42 5 5 2 0 0 5 5 5 78 100 100 100 100 98 97 100 100 100 100 100 96 100 99 100 100 100 100 100 100 100 100 100 100 100 100 100 100 100 100 100 100
5 4 0 0 3 5 5 5 61 90 100 100 100 100 100 81 73 95 100 100 100 89 100 100 100 100 100 100 100 100 100 100 100 100 100 92 81 100 100 100 87 70 95
0 2 5 5 5 5 5 31 77 100 100 100 100 100 90 100 100 94 100 100 100 98 100 100 100 100 100 100 100 100 100 100 100 100 94 14 18 63 80 99 65 100 100
4 5 5 5 5 5 9 51 100 100 100 100 100 100 100 100 100 100 100 100 100 100 100 100 100 100 100 100 100 100 100 100 100 45 5 18 97 85 92 98 100 100 97
5 5 5 5 76 9 8 73 100 100 100 100 100 100 100 100 100 100 100 100 100 100 100 100 100 100 100 100 100 100 92 5 63 93 31 77 72 91 62 96 24 53 83
5 5 5 68 65 9 91 100 100 100 100 100 100 100 100 100 100 100 100 100 100 99 84 80 100 100 100 100 98 95 47 61 97 91 83 60 77 85 75 100 100 35 28
5 5 5 58 11 56 100 100 100 100 100 100 100 100 100 100 100 100 99 98 97 95 100 97 100 100 100 100 100 100 76 99 100 99 75 96 81 93 64 100 97 93 100
5 5 51 20 67 100 100 100 100 100 100 100 100 100 100 98 93 100 96 100 100 98 76 100 100 100 99 100 100 100 100 100 100 100 100 100 100 100 100 100 100 100 100
6 26 16 95 100 100 100 100 100 100 100 100 100 100 100 100 100 100 100 99 84 100 100 100 100 100 100 100 100 88 100 100 100 100 100 100 100 100 100 100 100 100 100
33 16 87 100 100 100 100 100 100 100 100 100 100 100 100 100 100 100 100 100 100 98 100 100 100 100 100 100 100 90 100 100 100 100 100 100 100 100 100 100 100 100 100
15 69 100 100 100 100 100 100 100 100 100 100 100 100 100 100 97 100 100 100 100 100 100 100 100 100 100 100 100 100 100 100 100 100 100 100 100 100 100 100 100 100 100
50 98 100 100 100 100 100 100 100 100 100 100 100 100 100 100 100 100 100 100 100 100 100 100 100 100 100 100 100 100 100 100 100 100 100 100 100 100 100 100 100 100 100
98 92 100 100 100 100 100 100 100 100 100 100 100 100 100 100 100 100 100 100 100 100 100 100 100 100 100 100 100 100 100 100 100 100 100 100 100 100 100 100 100 100 100
64 100 100 100 100 100 100 100 100 100 100 100 100 100 99 99 100 100 100 100 100 100 100 100 100 100 100 100 100 100 100 100 97 80 91 98 100 100 100 100 100 100 100
83 100 100 100 100 100 100 100 100 100 100 100 100 100 100 100 100 100 100 100 100 100 100 100 100 100 100 100 100 100 100 100 100 100 100 100 100 100 100 98 100 100 95
100 100 100 100 100 100 100 100 100 100 100 100 99 100 100 100 100 100 100 100 100 100 100 100 100 100 100 100 100 100 100 100 100 100 98 100 100 100 100 98 100 100 100
100 100 100 100 100 100 100 100 100 100 100 100 100 100 100 100 100 100 100 100 100 100 100 100 100 100 100 100 100 100 100 100 99 100 100 19 100 100 100 74 51 26 77
100 100 100 100 100 100 100 100 100 100 100 100 100 100 100 100 100 100 100 100 100 100 100 100 100 100 100 100 100 100 100 100 100 99 100 88 100 100 100 100 100 52 31

GFSGL_prec_cloud_072.txt.gz
Cloud_Cover
0 0 0 0 0 0 0 0 0 0 0 0 0 0 0 0 0 0 0 0 0 3 5 10 90 100 100 100 100 100 100 100 96 5 5 5 4 0 0 0 0 5 5
0 0 0 0 0 0 0 0 0 0 0 0 1 4 4 4 5 4 5 5 5 16 45 100 100 100 100 100 100 94 90 77 78 5 5 5 5 5 5 4 0 4 5
0 0 0 0 0 0 0 5 39 72 98 100 100 100 99 64 5 8 6 29 100 100 100 100 100 100 100 100 100 98 95 80 68 62 94 12 20 5 5 5 5 1 2
0 0 0 0 0 0 2 5 89 100 100 100 100 98 100 85 26 5 5 6 97 100 100 100 100 100 90 72 79 69 78 88 85 100 100 100 100 99 44 5 5 5 0
0 0 0 0 0 1 5 100 100 100 100 96 52 5 5 5 5 5 93 100 100 100 99 87 88 96 96 100 100 100 100 100 100 100 90 100 99 56 85 29 6 5 4
0 0 0 0 6 98 100 100 100 65 5 14 5 5 5 5 12 100 100 100 100 100 100 100 100 98 100 100 100 100 100 100 100 100 100 100 100 78 80 43 97 5 5
0 0 5 5 20 47 60 22 3 0 0 0 5 5 8 75 100 100 100 100 100 100 100 100 78 88 100 100 100 100 100 100 100 100 100 100 100 100 97 100 100 44 9
0 3 4 5 3 1 0 0 0 0 2 5 6 90 100 100 100 99 100 100 100 100 99 100 99 67 64 95 54 87 96 99 100 82 85 94 100 100 100 100 100 84 33
0 0 0 0 0 0 0 2 5 5 5 56 100 100 100 100 74 100 100 100 100 100 90 99 98 79 100 99 100 100 100 100 100 100 100 100 100 100 100 100 100 100 100
0 0 0 0 0 0 0 5 5 5 7 100 100 100 100 78 100 100 100 100 100 100 100 100 100 100 100 100 100 100 100 100 100 100 100 100 100 100 100 100 100 100 100
0 0 0 0 1 5 4 5 5 5 49 100 100 100 99 100 100 100 100 100 100 88 100 100 100 100 100 100 100 95 84 100 100 100 100 100 100 100 79 71 100 94 100
0 0 1 2 5 5 5 5 5 5 81 100 100 100 100 100 100 100 100 100 100 93 79 99 100 100 100 100 100 100 100 100 100 100 100 100 53 13 12 5 47 100 66
0 5 5 5 5 5 5 18 75 83 99 100 100 100 100 100 100 100 100 100 99 100 98 80 98 93 100 100 100 100 100 100 100 59 56 6 5 5 12 10 22 90 80
5 5 5 5 5 5 6 81 100 100 100 100 100 100 100 100 100 100 99 100 100 100 100 99 80 100 100 100 100 100 100 46 62 19 6 34 94 73 68 91 33 41 50
5 5 5 5 5 29 100 100 100 100 100 100 100 100 100 100 100 100 100 100 96 100 100 60 91 100 100 100 97 98 100 99 100 100 98 100 98 100 93 99 88 100 100
5 5 5 5 16 100 100 100 100 100 100 100 100 100 100 100 100 100 100 100 100 100 97 79 100 100 100 100 100 97 100 89 100 100 100 100 100 100 100 100 100 100 94
5 5 5 19 100 100 100 100 100 100 100 100 100 100 100 100 100 100 100 100 99 100 96 97 100 100 100 100 100 100 91 100 100 100 100 100 100 100 100 100 100 100 100
5 10 22 98 100 100 100 100 100 100 100 100 100 100 100 100 100 100 100 100 99 100 94 100 100 100 100 100 100 100 100 100 100 100 100 100 100 100 100 100 100 100 100
5 14 91 100 100 100 100 100 100 100 100 100 100 100 100 96 100 100 100 100 100 98 97 93 98 100 100 100 100 100 100 100 100 100 100 100 100 100 100 100 100 100 100
12 51 100 100 100 100 100 100 100 100 100 100 100 100 100 100 99 100 100 100 100 100 100 100 100 100 100 100 100 100 100 100 100 100 100 100 100 100 100 100 100 100 100
30 100 100 100 100 100 100 100 100 100 100 100 100 100 100 100 100 100 100 100 100 100 100 100 100 100 100 100 100 100 100 100 100 100 100 100 100 100 100 100 100 100 100
71 100 100 100 100 100 100 100 100 100 100 100 100 99 98 100 100 100 100 100 100 100 100 100 100 100 100 100 100 100 100 100 77 100 100 100 86 65 77 100 100 78 98
94 100 100 100 100 100 100 100 100 100 100 100 100 100 100 100 100 100 100 100 100 100 100 100 100 100 100 100 100 100 100 100 100 98 84 100 100 99 85 94 100 100 85
82 99 100 100 100 100 100 100 100 100 100 100 100 100 100 100 100 100 100 100 100 100 100 100 100 100 100 100 100 100 100 100 84 99 99 100 100 100 96 41 98 39 71
35 93 100 100 100 100 100 100 100 100 100 100 100 100 100 100 100 100 100 100 100 100 100 100 100 100 100 100 100 100 100 100 73 100 100 100 100 100 100 78 50 26 30
72 82 99 100 100 100 100 100 100 100 100 100 100 100 100 100 100 100 100 100 100 100 100 100 100 100 100 100 100 100 100 100 100 100 90 76 100 100 100 90 74 99 100

GFSGL_prec_cloud_075.txt.gz
Cloud_Cover
0 0 0 0 0 0 0 0 0 0 0 0 0 0 0 2 5 5 54 55 46 19 5 5 12 45 28 100 100 100 100 100 99 2 5 5 3 0 0 0 0 0 0
0 0 0 0 0 0 0 0 0 0 0 0 0 0 4 5 15 6 79 99 38 50 36 98 100 98 78 100 100 100 100 99 97 5 5 5 0 0 0 0 1 5 4
0 0 0 0 0 0 0 0 0 0 0 3 5 37 25 87 100 64 54 25 30 44 42 95 100 100 100 100 96 33 5 10 44 49 18 32 5 5 5 5 5 5 1
0 0 0 0 0 0 0 0 0 0 0 2 5 6 6 3 1 5 5 5 5 35 99 100 100 96 90 43 15 43 83 76 100 100 100 99 77 100 66 65 55 7 5
0 0 0 0 0 0 0 0 0 0 0 0 0 0 0 2 5 5 5 89 99 100 100 98 100 70 100 94 100 100 100 100 100 100 100 100 100 100 95 86 8 5 5
0 0 0 0 0 0 0 0 0 0 0 0 0 0 5 5 5 40 100 99 100 100 100 100 100 100 98 100 100 100 100 100 100 100 100 100 100 100 100 100 90 81 58
0 0 0 0 0 0 0 0 0 0 0 0 1 5 5 21 100 100 100 100 100 100 100 100 100 100 100 100 100 100 100 100 98 82 99 100 100 100 99 93 99 100 83
4 5 2 0 0 0 0 0 0 0 0 2 5 5 5 97 89 96 100 100 100 100 100 99 100 100 100 99 82 99 100 100 100 99 100 99 100 95 93 100 100 100 98
5 0 0 0 0 0 0 0 0 0 4 5 5 8 89 58 64 98 100 100 100 100 100 100 100 98 100 100 100 96 100 100 99 81 100 100 100 100 94 100 100 100 100
0 0 0 0 0 0 0 3 0 1 5 2 5 76 96 100 100 100 100 100 100 100 100 100 100 100 64 100 99 75 100 100 100 100 100 100 100 100 100 100 100 100 100
2 0 0 5 5 5 5 4 3 5 2 5 98 100 100 100 100 100 100 100 94 86 100 100 100 98 74 100 100 94 93 100 64 90 100 100 100 100 100 100 100 100 100
0 2 5 5 5 5 5 5 5 5 80 78 100 100 99 100 100 84 100 100 100 100 94 100 100 100 100 96 100 100 100 99 95 100 100 100 100 100 100 74 60 82 100
5 5 5 5 5 5 5 5 6 76 92 100 100 100 100 100 96 98 100 100 100 100 98 90 100 91 82 100 100 100 100 86 93 74 97 90 89 98 99 83 16 18 8
5 5 5 5 5 5 5 65 66 100 100 100 100 100 100 100 100 100 100 100 100 100 100 98 83 26 100 100 100 100 100 100 72 78 99 50 5 85 100 64 50 95 100
5 5 5 5 5 42 81 87 95 100 100 100 100 100 100 100 100 100 100 100 100 98 99 80 11 84 100 100 100 94 85 71 58 97 100 100 100 100 54 55 84 100 84
5 5 5 8 32 76 98 100 100 100 100 100 100 100 100 100 100 100 100 99 100 100 94 73 56 100 100 100 100 100 100 91 24 100 100 100 100 100 99 97 100 99 100
5 5 5 7 61 99 100 100 100 100 100 100 100 100 100 100 100 100 100 100 100 100 97 64 55 100 100 100 100 100 87 100 100 100 100 100 100 100 100 100 100 100 100
5 40 5 79 73 100 100 100 100 100 100 100 100 100 100 99 100 100 100 100 100 100 97 100 100 93 100 100 100 94 100 100 100 100 100 100 100 100 100 100 100 100 100
8 5 37 70 100 100 100 100 100 90 100 99 100 83 68 80 100 100 100 100 100 100 100 100 99 100 100 100 100 100 100 100 100 100 100 100 100 100 100 100 100 100 100
5 14 48 94 100 96 96 94 94 98 100 100 100 100 99 100 100 100 100 100 100 100 100 100 100 100 100 100 100 100 100 100 100 100 100 100 100 100 100 100 100 100 100
5 33 47 92 97 83 98 88 79 88 100 100 97 100 100 100 100 100 100 100 100 100 100 100 100 100 100 100 100 100 100 100 100 100 100 99 100 100 100 100 100 100 100
13 43 46 93 72 84 99 95 80 85 100 100 100 100 100 100 100 100 100 100 100 100 100 100 100 100 100 100 100 100 100 100 100 100 79 96 100 100 100 100 100 80 100
44 43 84 100 83 97 83 89 83 100 100 100 100 100 100 100 100 100 100 100 100 100 100 100 100 100 100 100 100 100 100 100 96 99 48 71 100 77 60 87 100 100 100
46 29 81 100 99 84 94 100 99 100 100 100 100 100 100 100 100 100 100 100 100 100 100 100 100 100 100 100 100 100 100 100 86 77 70 90 100 100 69 33 14 100 100
12 57 26 100 84 96 100 100 96 88 96 100 100 100 100 100 100 100 100 100 100 100 100 100 100 100 100 100 100 100 100 100 88 100 100 100 100 100 100 41 12 100 100
53 66 57 58 69 96 100 100 93 100 100 100 100 100 100 100 100 100 100 100 100 100 100 100 100 100 100 100 100 100 100 100 69 95 100 100 100 100 100 76 98 68 100

GFSGL_prec_cloud_078.txt.gz
Cloud_Cover
5 4 2 1 0 0 0 0 0 0 0 0 0 0 0 0 0 0 0 0 0 1 8 24 47 34 10 5 76 75 70 88 71 1 5 5 3 0 0 0 0 0 0
5 2 0 0 0 0 0 0 0 0 0 0 0 0 0 0 0 0 0 0 0 0 1 8 6 6 25 74 74 33 57 96 87 5 5 5 5 4 0 0 0 0 0
5 5 4 0 0 0 0 0 0 0 0 0 0 0 0 0 0 0 0 0 2 5 5 5 5 20 40 92 95 33 15 5 5 5 5 5 18 5 12 4 1 0 0
0 0 0 0 0 0 0 0 3 0 0 0 0 0 0 0 0 0 3 5 5 5 6 6 92 92 90 13 47 57 34 43 72 97 100 38 38 79 36 8 36 12 5
0 0 0 0 0 0 0 4 4 0 0 0 0 0 0 0 0 5 8 78 93 96 78 96 96 91 100 100 100 89 100 100 100 100 100 100 100 100 100 89 39 98 84
0 0 0 0 0 0 0 0 0 0 0 0 0 0 0 0 5 5 100 100 100 100 94 75 100 100 98 100 100 100 100 100 100 100 100 100 100 100 100 100 100 100 79
0 0 0 0 1 0 0 0 0 0 0 0 0 0 0 2 2 97 100 100 100 100 100 100 100 100 100 100 100 100 100 100 100 91 87 88 99 100 100 100 100 100 99
0 0 0 2 0 0 0 0 0 0 0 0 0 0 0 0 5 57 100 100 100 100 100 100 100 100 100 100 100 100 100 100 100 100 96 60 98 99 100 100 97 100 93
0 2 30 5 1 0 0 0 0 0 0 0 0 0 5 84 71 68 100 100 100 100 100 95 97 95 100 100 98 100 100 100 100 97 75 98 100 100 100 100 100 100 100
11 98 38 5 5 2 5 0 5 0 5 5 15 98 100 100 73 94 100 100 100 100 100 100 98 100 80 77 77 87 95 100 98 100 100 100 99 100 100 79 100 100 100
12 1 5 5 5 5 5 5 5 5 6 98 100 100 98 100 100 100 100 100 100 100 100 100 100 99 88 100 100 100 84 100 100 100 100 98 96 100 100 100 100 100 100
0 5 5 5 5 5 5 5 5 14 100 100 100 100 100 100 100 100 100 100 100 100 74 100 100 98 99 99 84 94 100 100 100 100 100 100 100 100 100 100 100 100 100
0 5 5 5 5 5 5 5 31 98 100 100 100 100 100 100 100 100 100 100 100 100 99 99 72 88 84 46 100 100 100 100 100 100 100 100 100 100 100 100 100 100 100
5 5 5 5 5 5 5 19 96 100 100 100 100 100 100 89 100 100 100 100 100 100 95 98 94 41 33 100 100 100 100 100 100 51 65 88 100 91 74 94 99 100 100
5 5 5 5 5 5 56 68 100 100 100 100 100 100 100 100 100 100 100 100 100 95 100 62 45 7 98 100 100 100 100 100 73 86 84 100 100 97 100 98 100 100 100
5 5 5 5 5 44 100 100 100 100 100 100 95 100 100 100 100 100 100 99 99 88 93 71 67 38 97 100 100 100 100 100 100 100 90 100 100 100 100 100 98 100 95
7 5 5 5 56 100 100 100 100 100 100 100 100 98 100 100 100 100 100 100 100 100 100 100 100 100 83 100 100 100 100 100 100 100 100 100 100 100 100 100 100 100 100
9 54 5 17 83 100 99 98 100 100 100 100 100 94 93 100 100 97 98 100 100 100 100 100 100 100 100 87 100 100 100 97 100 100 100 100 100 100 100 100 100 100 100
16 6 5 22 98 100 98 87 100 100 100 100 100 100 100 100 100 100 100 100 100 100 100 100 100 100 96 100 100 100 100 100 100 100 100 100 100 100 100 100 100 100 100
34 5 28 58 94 96 100 92 97 91 96 100 100 100 100 100 100 100 100 100 100 100 100 100 100 100 100 100 100 100 100 100 100 100 100 100 100 100 100 100 100 100 100
5 13 52 71 84 91 100 89 88 100 100 100 100 100 100 100 100 100 100 100 100 100 100 100 100 100 100 100 100 100 100 99 91 100 100 100 100 100 100 100 100 100 100
8 35 36 99 100 89 82 76 100 100 100 100 100 100 100 100 100 100 100 100 100 100 100 100 100 100 100 100 100 100 100 91 98 100 100 100 100 100 100 100 100 100 100
10 6 5 76 97 93 96 100 100 100 98 95 100 100 100 100 100 100 100 100 100 100 100 100 100 100 100 100 100 100 100 100 94 100 100 100 100 100 94 100 100 100 100
5 5 5 47 57 93 100 100 99 96 82 77 100 100 99 100 100 100 100 100 100 100 100 100 100 100 100 100 100 100 100 100 87 98 100 98 100 100 100 100 100 100 100
5 5 5 5 76 100 100 100 89 92 85 100 100 93 90 100 100 100 100 100 100 100 100 100 100 100 100 100 100 100 100 100 78 97 88 100 100 100 98 100 100 98 93
5 5 5 11 90 100 100 100 85 98 92 100 100 80 94 100 100 100 100 100 100 100 100 100 100 100 100 100 100 100 100 100 55 96 96 100 100 100 97 54 100 87 100

GFSGL_prec_cloud_084.txt.gz
Cloud_Cover
100 100 98 21 5 32 91 26 2 0 2 5 1 0 0 0 0 0 0 0 0 0 0 0 0 0 0 0 0 4 5 5 5 0 1 5 5 0 0 0 1 4 0
93 19 5 38 98 6 5 0 5 5 3 0 0 0 1 4 5 1 0 0 0 0 0 0 0 0 0 3 5 4 0 0 5 5 5 5 5 5 2 4 5 5 5
6 41 89 15 4 0 4 4 0 0 0 0 0 2 0 0 0 0 0 0 0 0 0 0 5 5 5 5 5 5 5 5 5 5 12 5 5 5 5 5 5 5 5
43 6 3 1 4 2 0 0 0 0 0 0 0 0 0 0 0 0 0 0 0 2 4 5 5 5 6 5 5 5 25 37 81 100 93 38 83 48 88 85 48 6 5
1 2 5 5 5 0 0 0 0 0 0 0 0 0 0 0 0 0 2 4 5 5 6 64 9 31 88 98 100 100 100 100 100 100 100 100 100 100 100 96 99 97 29
5 5 5 5 0 0 0 0 0 0 0 0 0 0 0 0 0 2 5 5 33 87 96 45 81 100 79 70 99 100 100 100 100 100 100 100 100 100 100 100 100 100 95
5 5 1 0 0 0 0 0 0 0 0 0 0 0 0 0 0 5 6 71 81 100 100 68 96 96 82 89 100 100 100 100 100 98 99 96 100 100 99 94 93 100 99
3 0 0 0 0 0 0 5 5 4 2 0 0 4 0 0 5 8 54 100 100 100 100 100 100 100 81 79 94 99 100 100 100 100 76 47 78 100 95 100 100 62 20
0 0 0 0 0 0 5 5 5 5 0 4 5 0 5 5 67 65 100 100 100 100 100 98 80 91 97 100 100 100 100 100 100 100 99 92 97 100 92 94 86 100 100
1 3 0 0 0 4 5 5 5 5 5 5 4 28 100 100 100 82 100 100 100 96 100 43 92 96 98 100 100 95 100 100 100 69 93 99 70 100 100 100 99 100 100
0 0 0 0 1 5 5 5 5 5 5 18 80 100 81 75 96 81 100 100 100 100 100 100 88 99 100 100 100 100 100 100 98 100 100 100 100 97 100 100 100 97 100
0 2 5 5 5 5 5 5 5 5 68 100 100 100 100 80 97 92 100 100 100 100 100 100 100 100 100 100 100 100 97 100 100 96 100 100 100 100 100 100 100 100 100
5 5 4 5 5 5 5 5 5 11 67 100 96 100 100 100 93 56 98 99 100 100 100 99 95 97 100 100 97 69 100 100 99 100 100 98 76 82 99 100 100 69 99
5 4 5 5 5 5 5 5 49 69 91 64 95 100 100 100 92 72 71 100 100 98 88 98 100 100 100 97 100 72 100 100 100 100 100 100 100 100 100 100 100 100 100
5 5 5 5 5 5 5 6 93 46 94 100 100 100 100 100 96 95 100 100 100 100 100 100 100 100 100 100 100 84 100 100 100 100 100 100 100 100 100 100 90 100 100
5 5 5 5 5 5 5 8 30 12 98 99 100 100 100 100 100 100 100 100 100 100 100 100 100 100 100 100 100 100 100 100 100 100 100 100 100 100 100 100 100 97 100
5 5 5 6 5 5 7 10 94 93 100 100 100 100 100 100 100 100 100 100 100 100 100 100 100 100 100 100 100 100 100 100 100 100 100 100 100 100 100 100 100 100 100
5 7 5 5 5 5 8 52 70 100 100 100 100 100 100 100 100 100 100 100 100 100 96 98 100 100 100 100 100 100 100 100 100 100 100 100 100 100 100 100 100 100 100
58 5 5 5 5 5 15 41 100 100 100 100 100 100 73 55 100 95 99 99 100 93 99 100 100 100 100 100 100 100 100 100 100 100 100 100 100 100 100 100 100 100 100
61 5 5 5 5 9 35 96 100 100 100 73 98 100 74 99 88 100 98 90 95 100 100 100 100 100 100 100 100 100 100 100 100 92 100 100 100 100 100 100 100 100 100
5 5 5 5 5 19 88 100 100 100 94 100 100 100 100 100 98 81 90 89 100 100 100 100 100 100 100 100 100 100 100 100 100 100 88 100 100 100 100 100 100 100 100
5 5 5 5 6 88 100 100 100 98 100 100 100 99 99 81 81 83 89 94 98 100 100 100 100 100 100 100 100 100 100 100 100 77 89 100 99 100 100 100 100 100 100
5 5 5 5 50 100 91 100 100 100 100 100 98 57 94 100 100 98 99 94 100 100 100 100 100 100 100 100 100 100 100 100 100 51 88 100 100 100 100 100 100 100 100
5 5 5 6 100 100 100 100 100 100 87 100 63 79 85 76 100 100 100 100 100 100 100 100 100 100 100 100 100 100 100 100 100 100 94 100 100 100 100 100 100 100 100
5 5 5 15 78 78 100 100 100 100 75 100 100 99 96 80 100 100 100 100 100 100 100 100 100 100 100 100 100 100 100 100 84 42 91 81 100 93 100 100 100 100 100
5 5 5 7 39 100 100 100 100 100 91 95 98 100 99 100 99 100 100 100 100 100 100 100 100 100 100 100 100 100 100 100 98 100 90 87 100 100 100 100 100 100 100

GFSGL_prec_cloud_087.txt.gz
Cloud_Cover
72 100 43 86 96 66 72 94 38 9 5 5 1 0 0 0 0 0 0 0 0 0 0 0 0 0 0 1 1 1 3 4 12 4 5 5 5 5 5 5 5 5 5
100 98 100 44 98 100 65 5 5 5 0 0 0 0 0 0 0 0 0 0 0 0 0 0 0 0 5 5 5 5 5 7 24 5 5 5 10 39 5 5 5 5 5
100 83 100 100 62 13 4 1 5 2 0 0 0 0 0 0 0 0 0 0 0 0 0 0 3 5 5 5 5 15 15 6 32 90 7 6 13 31 49 34 46 14 15
100 98 66 24 3 2 5 5 0 0 0 0 0 0 0 0 0 0 0 0 0 2 3 5 5 5 5 5 10 10 10 70 100 100 100 88 87 96 100 95 96 100 58
75 12 0 0 5 5 1 0 0 0 0 0 0 0 0 0 0 0 4 5 5 5 5 5 5 7 60 91 87 100 98 100 100 100 100 100 100 100 100 97 100 93 100
0 0 0 5 4 0 0 0 0 3 1 0 0 0 0 0 0 3 5 5 5 64 66 43 96 99 81 66 65 100 100 100 100 100 100 100 100 100 100 100 100 100 100
0 1 4 0 0 0 0 0 4 0 0 0 0 0 0 0 0 4 5 41 100 100 100 100 100 100 100 98 86 79 89 99 100 100 100 89 100 75 100 100 87 70 82
4 1 0 0 0 0 0 0 0 0 2 5 0 4 5 0 5 27 56 100 100 100 100 100 100 100 65 92 88 85 97 100 99 77 100 100 52 31 84 37 100 94 88
0 0 0 0 0 0 0 0 0 5 5 5 5 5 20 70 59 90 91 100 100 86 86 100 100 99 96 92 100 100 100 76 96 99 100 88 92 99 100 100 97 80 100
0 0 0 0 0 0 0 2 5 5 5 5 5 5 40 100 100 100 100 100 99 98 66 92 100 100 100 100 99 100 90 100 100 99 100 100 73 21 78 92 84 100 100
0 0 0 0 0 4 5 5 5 5 5 5 5 5 5 56 88 96 100 100 100 91 100 100 100 77 87 100 100 100 94 77 98 99 92 100 97 100 100 100 78 77 79
0 1 5 5 5 5 5 5 5 5 5 5 5 50 77 100 58 59 90 100 100 100 100 100 100 100 100 100 99 100 96 100 99 86 86 97 100 100 100 100 100 84 70
0 5 5 5 5 5 5 5 5 5 5 6 29 98 78 100 55 43 9 52 90 100 100 100 100 100 100 100 100 81 100 98 67 52 100 100 100 100 100 92 92 97 87
5 5 5 5 5 5 5 5 5 5 41 84 100 100 100 58 70 51 83 100 100 100 100 100 97 98 100 99 100 90 75 96 80 100 100 100 100 100 100 100 100 100 100
4 5 5 5 5 5 5 5 5 22 86 100 100 100 100 98 94 100 100 100 100 98 100 100 100 100 100 100 100 100 96 94 99 100 100 100 100 100 100 100 95 87 100
5 5 5 5 5 5 5 5 5 25 91 100 100 100 100 100 100 100 100 100 98 98 100 100 100 100 100 100 97 100 100 100 100 100 100 100 100 100 100 100 100 100 100
5 5 5 5 5 5 5 22 80 41 100 100 100 100 100 100 100 96 100 98 77 95 100 100 100 100 100 97 100 100 100 100 100 100 100 100 100 100 100 100 100 100 100
5 5 5 5 5 5 10 64 100 100 100 76 69 98 100 99 100 99 98 84 91 100 97 99 100 100 100 100 100 92 100 100 100 100 100 100 100 100 100 100 100 100 100
91 5 5 5 5 5 21 86 100 100 100 100 98 96 98 56 100 55 84 99 100 100 100 97 98 100 100 100 100 100 100 100 100 100 100 100 100 100 100 100 100 100 100
16 5 5 5 5 20 94 100 100 100 100 100 100 100 86 98 78 91 77 84 100 100 100 100 100 100 100 100 100 100 100 100 100 100 100 100 100 100 100 100 100 100 100
5 5 5 5 18 62 100 100 100 100 100 100 100 100 100 97 93 98 100 98 100 100 100 100 100 100 100 100 100 100 100 100 100 100 100 100 100 100 100 100 100 100 100
5 5 5 13 64 100 100 100 98 100 100 95 91 84 84 100 89 96 100 100 100 100 100 100 100 100 100 100 100 100 100 100 100 100 100 100 93 100 100 100 100 100 100
5 5 5 28 62 81 100 100 100 100 100 77 83 91 98 97 100 100 100 100 100 100 100 100 100 100 100 100 100 100 100 100 100 100 100 100 100 100 100 100 100 100 100
5 5 5 18 68 100 100 100 100 100 100 94 92 88 97 96 100 100 100 100 100 100 100 100 100 100 100 100 100 100 100 100 100 100 88 100 100 100 100 100 100 100 100
5 5 5 45 100 100 100 100 100 100 100 100 96 79 93 92 100 100 100 100 100 100 100 100 100 100 100 100 100 100 100 100 99 100 100 83 100 100 100 100 100 100 100
5 5 12 63 100 100 100 100 100 100 100 100 90 97 100 100 100 100 100 100 100 100 100 100 100 100 100 100 100 100 100 100 100 100 95 98 100 100 100 100 100 100 100

GFSGL_prec_cloud_090.txt.gz
Cloud_Cover
100 40 24 11 44 14 47 59 97 98 23 5 1 0 0 0 0 0 0 0 0 0 0 0 0 0 0 5 5 5 5 5 5 0 6 5 5 8 39 16 15 5 5
5 6 90 61 88 97 100 67 19 5 2 5 0 0 0 0 0 0 0 0 0 0 0 0 0 0 5 5 5 5 7 62 85 51 68 55 80 91 85 87 83 59 46
78 78 93 96 94 20 5 5 4 5 1 0 0 0 0 0 0 0 0 0 1 0 3 2 5 4 5 5 5 45 95 95 100 100 82 77 100 100 93 94 100 100 66
100 99 75 8 5 5 3 5 2 0 0 0 0 0 0 0 0 0 0 5 5 5 5 5 5 5 13 30 74 85 100 100 100 100 100 61 98 70 100 84 100 100 91
47 5 5 6 1 3 3 0 0 0 0 0 0 2 5 5 5 2 5 5 5 5 5 5 55 78 95 100 98 92 100 100 100 100 100 100 100 100 100 97 83 100 94
27 4 0 4 5 0 0 0 0 0 0 5 5 5 5 5 0 5 5 5 5 5 24 94 100 96 81 83 79 99 100 100 100 100 100 100 100 99 100 97 100 100 100
0 0 4 2 0 0 0 0 0 0 2 5 5 5 5 5 5 5 5 5 36 94 99 100 93 89 70 85 40 72 89 89 95 96 100 98 96 84 96 86 94 54 98
0 1 0 0 0 0 0 0 0 5 5 5 5 5 5 5 5 5 5 81 98 100 52 96 100 100 97 100 100 100 100 100 96 66 100 100 100 96 97 98 99 94 96
0 0 0 0 0 0 0 1 5 5 5 5 5 5 5 5 5 6 62 100 95 70 72 91 80 94 100 100 100 100 100 100 98 100 100 100 100 100 100 100 100 99 100
0 0 0 0 0 4 5 5 5 5 5 5 5 3 0 5 7 65 100 100 98 92 75 98 78 98 100 100 100 100 100 100 100 100 100 100 100 93 89 96 63 100 97
0 0 0 1 5 5 5 5 5 5 5 5 2 2 5 38 82 100 100 100 100 100 100 96 97 100 100 100 100 100 100 100 100 100 94 90 99 100 41 81 100 100 100
0 0 1 5 5 5 6 27 9 6 5 5 5 8 59 100 100 100 97 100 100 100 100 100 99 100 100 100 93 96 100 100 95 100 97 98 99 100 100 100 100 100 100
1 5 5 5 5 23 36 24 32 6 5 5 40 100 100 100 97 100 100 100 100 100 100 93 100 100 100 100 80 96 100 100 99 100 100 100 87 100 100 100 100 100 97
5 5 5 5 6 32 41 27 5 5 11 78 78 100 100 100 100 100 95 100 98 100 100 97 77 91 100 100 100 100 100 100 94 100 100 100 100 100 100 100 100 100 100
5 9 9 22 58 20 5 5 5 29 98 100 100 100 100 79 80 97 100 100 100 93 100 96 94 100 100 89 100 100 100 100 100 100 100 100 100 100 100 100 100 100 100
7 5 22 6 5 5 5 5 51 66 100 100 100 100 100 100 100 100 100 100 97 100 100 100 100 100 100 100 100 98 100 100 100 100 100 100 100 100 100 100 100 100 100
5 35 29 5 5 5 5 66 99 86 94 97 100 100 100 100 100 95 100 100 100 100 100 100 100 100 100 97 100 100 100 100 100 100 100 100 100 100 100 100 100 100 100
50 15 5 5 5 5 66 100 100 100 100 96 100 100 100 100 100 100 100 100 99 100 100 100 100 100 100 100 100 100 100 100 100 100 100 100 100 100 100 100 100 100 100
9 3 5 5 5 9 95 100 100 100 100 100 100 100 100 95 100 100 100 100 100 100 100 100 100 100 100 100 100 100 100 100 100 100 100 100 100 100 100 100 100 100 100
5 5 5 5 5 73 100 100 100 100 100 100 100 100 100 100 97 100 100 100 100 100 100 100 100 100 100 100 100 100 100 100 100 100 100 100 100 100 100 100 100 100 100
5 5 5 5 7 100 100 100 100 100 100 100 100 100 100 100 100 100 100 100 100 100 100 100 100 100 100 100 100 100 100 100 100 100 100 100 100 100 100 100 100 100 100
4 5 5 5 39 95 100 100 100 82 100 100 100 100 100 100 100 100 100 100 100 100 100 100 100 100 100 100 100 100 100 100 100 100 100 100 100 100 100 100 100 100 100
0 1 5 5 64 100 100 100 100 98 100 100 100 100 100 100 100 100 100 100 100 100 100 100 100 100 100 100 100 100 100 100 100 100 100 100 100 100 100 100 100 100 100
0 0 5 5 69 100 100 100 100 100 100 100 100 100 100 100 100 100 100 100 100 100 100 100 100 100 100 100 100 100 100 100 100 100 100 100 100 100 100 100 100 100 100
0 5 5 68 100 100 100 100 100 100 100 100 100 100 100 100 100 100 100 100 100 100 99 100 100 100 100 100 100 100 100 100 100 100 100 100 100 100 100 100 100 100 100
5 5 5 59 100 100 100 100 100 100 100 100 99 100 100 100 100 100 100 100 100 100 100 100 100 100 100 100 100 100 100 100 100 100 100 100 99 100 100 100 100 100 100

GFSGL_prec_cloud_093.txt.gz
Cloud_Cover
100 100 100 89 100 61 28 13 10 5 17 4 2 0 0 0 0 0 0 0 0 0 0 0 0 0 0 0 1 4 5 5 5 0 4 5 5 8 5 13 15 5 5
100 100 86 64 41 14 41 23 21 2 4 0 0 0 0 0 0 0 0 0 0 0 0 0 0 3 5 5 5 5 5 6 78 5 5 5 5 5 52 97 11 91 11
58 73 72 65 55 13 21 5 4 0 0 0 0 0 0 0 0 0 0 0 0 0 3 5 5 5 5 5 17 9 5 5 17 67 8 32 88 86 86 96 100 97 88
100 72 41 49 19 5 4 0 0 0 0 0 0 0 0 0 0 2 2 5 5 5 7 82 80 74 61 9 44 62 66 98 72 59 92 99 59 86 87 98 10 24 55
39 70 10 5 5 3 5 0 0 0 0 0 0 0 5 5 5 5 4 5 5 14 6 5 5 8 15 5 48 76 100 100 100 100 100 100 100 89 82 89 100 71 9
5 5 3 5 5 0 0 0 0 0 0 3 5 5 5 5 5 5 6 36 22 5 5 5 5 5 5 57 100 100 100 100 100 100 100 100 100 100 100 85 91 58 44
5 5 1 0 0 0 0 0 0 3 5 5 5 5 5 5 5 11 50 8 5 5 5 100 100 100 60 99 96 95 100 99 100 100 90 89 86 74 85 82 58 63 23
0 0 0 0 0 0 0 0 4 5 5 5 5 5 5 5 21 7 5 5 48 75 81 96 95 84 98 97 96 79 89 100 100 93 75 93 100 100 100 98 98 100 76
0 0 0 0 0 1 5 5 5 5 5 5 5 5 8 5 5 5 18 97 100 65 70 96 99 92 98 98 100 89 85 100 100 100 100 100 100 100 100 100 98 100 100
0 0 0 1 1 5 5 5 5 5 5 5 8 20 5 3 5 8 89 100 100 100 64 85 86 94 100 100 100 99 100 100 100 100 93 78 99 100 100 96 48 100 89
0 0 1 5 5 5 5 5 17 20 22 36 77 13 5 5 5 89 100 80 93 100 100 78 92 98 98 100 100 100 100 100 100 100 98 99 100 100 100 100 76 26 67
0 4 5 5 5 5 9 8 14 55 75 66 8 5 5 40 98 100 100 100 99 100 89 100 94 97 75 93 100 100 100 100 98 95 91 100 99 99 99 98 28 100 100
5 5 8 5 5 6 15 57 65 80 14 5 5 7 64 100 100 100 100 100 97 90 100 100 100 99 88 100 100 100 100 92 94 94 89 96 100 100 100 100 100 100 100
5 10 17 16 10 11 60 72 18 5 5 56 98 77 100 100 90 100 93 91 100 100 100 99 81 98 99 100 100 84 100 98 100 98 99 100 100 100 100 100 100 100 100
9 49 67 62 8 27 5 5 5 9 80 100 92 100 100 100 100 100 100 100 100 100 100 100 100 100 100 100 98 99 99 100 100 100 100 99 100 100 100 100 100 100 100
31 81 73 16 5 5 5 5 7 50 92 100 100 100 100 100 100 100 100 100 100 100 100 100 100 100 100 100 100 94 100 100 100 100 100 100 100 100 100 100 100 100 100
61 43 6 5 5 5 5 14 93 98 82 97 92 100 100 100 100 100 100 100 100 100 100 100 100 100 100 100 100 100 100 98 100 100 100 100 100 100 100 100 100 100 100
70 24 5 5 5 5 27 78 100 100 100 92 98 100 100 100 100 100 100 100 100 100 100 100 100 100 100 100 100 100 100 100 100 100 100 100 100 100 100 100 100 100 100
84 5 1 4 5 8 53 100 100 100 100 100 100 100 100 100 100 100 100 100 100 100 100 100 100 100 100 100 100 100 100 100 100 100 100 100 100 100 100 100 100 100 100
5 5 5 5 5 24 84 100 100 100 100 100 100 100 100 100 100 100 100 100 100 100 100 100 100 100 100 100 100 100 100 100 100 100 100 100 100 100 100 100 100 100 100
5 5 5 5 10 61 96 100 100 100 100 100 100 100 100 100 100 100 100 100 100 100 100 100 100 100 100 100 100 100 100 100 100 100 100 100 100 100 100 100 100 100 100
3 0 5 5 58 87 100 100 100 100 100 100 100 100 100 100 100 100 100 100 100 98 98 100 100 100 100 100 100 100 100 100 100 100 100 100 100 100 100 100 100 100 100
0 0 5 19 83 85 100 100 100 100 100 100 100 100 100 100 100 100 100 100 100 100 100 100 100 100 100 100 100 100 100 100 100 100 100 100 100 100 100 100 100 100 100
0 1 5 53 89 100 100 100 100 100 100 100 100 100 100 100 100 100 100 100 100 100 100 100 100 100 100 100 100 100 100 100 100 100 100 100 100 100 100 100 100 100 100
0 5 5 66 86 100 100 100 98 100 100 100 92 97 86 100 100 100 100 100 100 100 100 100 100 100 100 100 100 100 100 100 100 100 100 100 100 100 100 100 100 100 100
5 5 5 47 100 100 100 100 89 100 100 100 91 90 85 100 99 100 98 96 100 100 100 100 100 100 100 100 100 100 100 100 100 100 100 100 100 100 99 100 100 100 100

GFSGL_prec_cloud_096.txt.gz
Cloud_Cover
86 98 94 97 100 100 100 91 100 96 28 5 5 1 0 0 0 0 0 0 0 0 0 0 0 0 0 0 0 0 1 4 5 0 0 0 0 3 3 5 5 5 5
100 100 84 100 100 100 98 21 5 5 5 1 0 0 0 0 0 0 0 0 0 0 0 0 0 0 0 0 0 0 5 5 5 5 4 5 5 5 5 5 0 5 5
100 100 100 94 37 5 5 5 5 2 0 0 0 0 0 0 0 0 0 0 0 0 0 0 0 1 3 9 22 25 16 8 5 24 5 5 5 5 9 5 5 16 59
29 37 11 5 5 5 5 5 4 0 0 0 0 0 0 0 0 0 0 0 0 0 0 0 5 5 5 5 9 10 54 73 52 79 54 10 66 22 49 7 5 5 5
41 52 10 5 5 5 5 5 4 0 0 0 0 0 0 0 0 2 5 3 3 1 4 5 4 1 5 63 100 100 75 77 90 97 97 97 88 96 100 92 98 98 16
5 5 5 5 5 5 5 0 0 0 0 0 0 0 5 1 5 5 9 16 57 100 7 3 5 5 1 7 97 100 100 99 96 100 100 100 100 100 100 69 100 100 96
5 5 8 8 1 0 0 0 0 0 0 0 4 3 0 2 4 5 23 100 45 5 5 6 5 5 5 5 5 31 73 18 94 97 100 100 100 72 82 99 100 100 100
3 1 0 0 0 0 0 0 0 0 0 0 0 3 5 5 5 7 55 18 5 33 92 100 50 5 5 13 35 73 29 74 63 68 90 58 16 40 88 100 98 87 99
0 0 0 0 0 0 0 0 3 4 4 5 5 5 5 5 5 5 30 69 100 100 95 93 5 5 5 93 100 100 99 100 100 100 96 100 100 100 100 100 100 100 100
0 0 0 0 0 0 5 5 5 5 5 5 5 5 5 5 5 5 46 100 100 100 58 9 5 66 80 100 100 100 87 34 30 100 100 96 100 100 100 100 100 90 82
0 0 0 1 5 5 5 5 5 5 5 5 5 8 5 5 5 5 67 100 100 96 89 5 23 88 78 100 100 100 95 100 100 100 96 100 100 100 100 100 100 94 98
0 0 4 5 5 5 5 5 11 6 5 5 5 1 5 5 6 86 100 100 100 100 100 79 67 98 100 100 100 90 100 100 100 97 100 100 100 100 98 100 100 100 100
0 5 5 5 5 5 5 5 5 5 5 0 4 5 5 15 99 100 99 100 96 89 100 100 99 100 100 75 55 96 100 84 86 70 83 85 91 100 98 100 100 100 100
5 5 5 19 5 5 5 5 3 0 0 6 82 100 86 98 100 98 100 100 94 85 80 92 100 100 100 100 100 78 73 88 76 95 91 90 97 90 97 100 100 100 100
5 5 5 5 5 5 1 0 0 17 48 95 100 100 99 100 100 100 100 100 100 100 100 100 100 100 100 100 100 100 100 83 94 81 95 100 96 100 100 100 100 100 100
5 5 5 5 2 4 0 0 2 5 6 88 100 100 100 100 100 100 100 100 100 100 100 100 100 100 100 100 100 100 100 99 82 92 97 100 100 100 100 100 100 100 100
5 5 5 5 0 5 5 3 5 5 98 99 100 100 100 100 100 100 100 100 100 100 100 100 100 100 100 100 100 100 100 100 96 97 100 99 100 100 100 100 100 100 100
23 72 8 0 0 5 5 5 5 86 100 100 100 99 100 100 100 100 100 100 100 100 100 100 100 100 100 100 100 100 100 99 92 100 99 100 100 100 100 100 100 100 100
5 5 0 0 0 5 5 5 80 100 100 100 90 76 84 91 78 73 96 99 100 100 100 100 100 100 100 100 100 100 100 100 94 100 100 100 100 100 100 100 100 100 100
5 1 5 2 4 5 13 100 100 100 100 100 100 99 100 100 87 22 82 100 100 100 100 100 100 100 100 100 100 100 100 100 100 98 100 100 100 100 100 100 100 100 100
0 0 0 0 5 22 100 100 100 100 90 100 99 100 100 100 87 54 86 100 100 100 100 99 100 100 100 100 100 100 100 100 100 100 100 100 100 100 100 100 100 100 100
0 0 0 4 5 69 96 100 100 100 100 92 69 50 84 67 71 86 84 98 100 100 99 100 100 100 100 100 100 100 100 100 100 100 100 100 100 100 100 100 100 100 100
0 0 0 5 5 10 98 100 100 100 100 92 89 31 71 85 89 84 86 88 98 100 100 100 100 100 100 100 100 100 100 100 100 100 100 100 100 100 100 100 100 100 100
0 0 4 5 5 68 100 71 77 85 100 89 77 92 88 73 91 89 85 85 90 94 100 100 100 100 100 100 100 100 100 100 100 100 100 100 100 100 100 100 100 100 100
0 0 5 5 14 100 36 5 18 97 100 97 100 100 81 81 94 90 87 99 100 100 100 100 100 100 100 100 100 100 100 100 100 100 100 100 100 100 100 100 100 100 100
0 0 5 5 30 94 91 85 96 100 100 100 100 88 91 100 87 96 98 100 100 100 100 100 100 100 100 100 100 100 100 100 100 100 100 100 100 100 100 100 100 100 100

GFSGL_prec_cloud_099.txt.gz
Cloud_Cover
100 100 100 100 100 100 100 100 100 100 89 52 18 18 5 5 5 3 0 0 0 0 0 0 0 0 0 0 0 0 0 0 5 1 0 0 0 0 0 0 3 4 0
99 94 100 100 100 100 100 100 91 60 39 19 5 5 5 5 2 0 0 0 0 0 0 0 0 0 0 0 0 0 0 5 5 5 5 0 0 0 0 5 5 5 5
100 88 47 34 78 100 98 40 39 28 27 6 5 5 2 0 0 0 0 0 0 0 0 0 0 0 0 0 0 5 5 5 18 65 5 5 4 2 5 34 39 5 5
86 84 93 82 48 27 11 39 73 57 13 5 2 0 0 0 0 0 0 0 0 2 1 2 1 0 1 0 1 2 33 75 60 79 70 26 5 5 5 12 5 5 5
12 6 7 25 6 29 62 30 6 5 3 0 0 0 0 0 0 3 2 5 5 5 5 5 5 5 5 5 35 9 11 72 93 56 79 100 100 96 99 97 88 70 82
5 5 5 5 5 14 5 0 0 0 0 0 0 0 0 0 5 0 5 5 5 96 100 70 5 3 5 5 68 100 100 100 100 100 100 100 100 100 100 100 100 100 92
14 5 8 11 1 0 0 0 0 0 0 0 0 0 0 0 0 5 8 5 64 100 53 5 7 22 10 5 5 5 44 26 97 100 98 64 94 82 73 100 98 100 100
5 5 2 0 0 0 0 0 0 0 0 0 0 0 0 0 1 5 8 65 6 5 83 99 100 79 5 6 5 46 94 100 87 9 84 69 61 99 100 72 86 100 100
0 0 0 0 0 0 0 0 0 0 0 0 4 5 5 1 5 5 28 5 5 5 60 100 70 22 5 12 82 99 100 80 93 37 91 98 100 83 96 100 100 100 100
0 0 0 0 0 0 2 5 0 0 1 5 5 5 5 5 5 1 5 32 5 72 99 26 5 72 48 91 100 95 100 100 100 36 87 70 100 54 99 100 98 100 100
0 0 0 0 0 5 5 4 5 5 5 5 5 5 5 2 0 3 8 94 100 100 89 57 99 56 21 68 100 100 100 100 100 100 100 100 100 100 100 100 100 100 100
0 0 4 5 5 5 5 5 5 5 5 5 4 0 0 1 4 5 98 100 100 100 88 45 9 43 98 98 99 88 85 99 100 98 65 71 65 35 37 72 92 96 100
0 5 5 5 5 5 5 5 5 3 0 0 3 5 5 51 5 96 88 100 100 100 80 79 91 100 100 100 100 100 100 100 90 44 5 5 49 5 28 10 42 77 92
5 5 5 5 5 5 3 3 0 0 2 7 44 7 68 44 61 100 88 80 87 100 81 84 100 100 100 100 100 100 100 100 100 100 68 57 6 16 68 93 98 100 100
5 5 5 5 4 0 0 0 0 4 63 94 80 97 98 87 47 95 100 100 100 100 100 100 100 100 100 100 100 100 100 100 100 100 46 9 5 34 99 100 100 100 100
5 5 5 5 0 0 0 0 0 5 5 50 100 100 100 100 100 100 100 100 100 100 99 97 100 100 100 100 100 100 100 100 100 100 62 5 5 59 92 100 100 100 100
5 5 5 4 0 0 0 4 5 5 5 100 100 100 100 100 100 100 100 100 100 81 82 88 88 100 100 100 100 100 100 100 100 100 94 6 21 70 99 100 100 100 100
4 5 1 0 0 0 5 5 5 66 96 70 47 95 84 100 100 100 100 91 63 72 70 82 100 100 100 100 100 100 100 100 100 100 98 40 45 92 99 100 100 100 100
0 0 0 0 0 1 5 25 100 98 100 97 46 40 49 59 77 50 34 26 82 98 63 96 100 100 96 100 100 100 100 100 100 100 100 86 95 96 99 100 100 100 100
0 0 0 0 2 5 5 12 87 100 100 93 84 55 87 98 87 66 62 50 82 87 91 98 93 92 100 94 100 100 100 100 100 100 100 91 100 100 100 100 100 100 100
0 0 0 0 5 5 5 14 94 100 92 99 21 20 99 99 5 17 84 86 92 90 92 100 100 100 100 100 100 100 100 100 100 100 94 100 100 100 100 100 100 100 100
0 0 0 5 5 5 6 20 80 85 98 86 5 5 34 57 85 94 87 86 87 91 98 100 100 100 100 100 100 100 100 100 100 100 100 100 100 100 100 100 100 100 100
0 0 1 5 5 5 5 5 5 56 92 90 50 66 82 88 92 92 91 84 91 99 100 100 100 100 100 100 100 100 100 100 100 100 100 100 100 100 100 100 100 100 100
0 0 5 5 5 5 5 68 90 64 49 88 86 81 85 92 87 90 91 95 99 100 100 100 100 100 100 100 100 100 100 100 100 100 100 100 100 100 100 100 100 100 100
0 1 5 5 5 44 98 100 25 67 76 81 89 91 93 84 93 88 85 99 100 100 100 100 100 100 100 100 100 100 100 100 100 100 100 100 100 100 100 100 100 100 100
0 5 5 5 5 70 100 100 100 100 100 79 84 92 100 100 94 99 100 100 100 100 100 100 100 100 100 100 100 100 100 100 100 100 100 100 100 100 100 100 100 100 100

GFSGL_prec_cloud_102.txt.gz
Cloud_Cover
100 100 100 100 100 100 100 100 100 100 100 100 93 79 88 98 100 86 46 57 6 5 5 0 0 0 0 0 0 0 0 0 0 0 0 0 0 0 0 0 0 0 0
91 100 100 100 100 100 100 100 50 94 62 100 99 22 10 50 75 23 5 5 0 0 0 0 0 0 0 0 0 0 0 0 5 5 5 5 2 0 0 0 0 0 5
100 99 64 83 100 76 42 98 66 14 12 5 6 5 5 5 5 0 0 0 0 0 0 0 0 0 0 0 0 0 0 0 1 3 5 9 4 3 5 5 5 5 5
74 98 41 64 61 94 29 5 4 2 5 5 5 5 1 0 0 0 0 0 0 0 2 5 5 5 5 5 5 3 5 5 5 5 30 26 5 6 63 89 91 14 3
53 35 5 0 3 4 2 4 4 5 5 2 0 0 0 0 0 0 0 0 0 5 5 5 42 46 32 35 17 5 5 21 57 92 98 98 98 99 95 34 91 64 38
5 0 2 5 5 5 5 5 3 0 0 0 0 0 0 0 0 0 5 5 5 25 5 38 82 7 5 5 52 100 100 100 100 100 100 100 100 100 94 100 100 100 96
5 5 5 5 4 0 0 0 0 0 0 0 0 0 0 1 5 4 5 5 6 18 16 5 5 4 5 15 5 5 8 15 57 84 100 100 100 6 5 27 86 99 100
5 3 0 0 0 0 0 0 0 0 0 0 0 0 0 2 4 5 6 9 5 5 5 5 5 5 16 5 5 5 5 29 64 96 95 78 56 57 22 50 100 98 100
3 0 0 0 0 0 0 0 0 0 0 0 0 2 5 5 4 5 5 5 3 3 5 4 19 9 5 12 68 91 100 97 90 100 100 100 100 100 100 100 98 87 100
0 0 0 0 0 0 0 0 0 0 2 5 5 5 5 5 5 1 5 5 5 5 5 5 5 23 24 96 99 100 47 97 100 100 100 100 100 100 81 82 68 71 75
0 0 0 0 0 1 3 5 5 5 5 5 5 5 3 0 0 4 5 28 88 100 96 21 7 13 33 83 99 100 92 96 100 100 100 98 63 52 84 98 91 93 100
0 0 0 2 5 5 5 5 5 4 5 1 0 1 3 4 2 5 74 100 100 100 100 100 73 28 43 99 100 100 100 100 100 100 100 100 97 100 33 5 7 34 96
0 0 1 5 5 5 5 5 0 0 0 2 5 5 5 5 5 5 17 81 98 76 97 86 97 86 89 100 100 100 100 100 100 100 100 100 93 100 19 5 5 5 5
0 4 5 5 5 5 4 4 0 0 4 5 5 5 26 87 5 5 11 22 77 34 30 9 85 98 90 77 90 100 100 100 100 100 100 100 100 100 27 16 91 67 100
4 4 3 2 0 0 0 0 0 5 8 66 16 88 100 100 54 96 100 100 100 100 98 99 83 58 77 80 78 88 100 100 100 100 100 100 100 100 14 7 94 100 100
4 5 5 5 0 0 0 0 1 5 5 24 100 100 100 78 100 100 100 100 80 90 100 90 8 5 40 57 98 100 100 100 100 100 100 100 100 100 17 8 100 100 100
5 5 3 1 0 0 0 5 5 5 5 34 83 84 89 92 100 100 100 100 100 83 21 5 8 49 100 100 100 100 100 100 100 100 100 100 100 100 84 31 99 100 100
1 0 0 0 0 0 4 5 5 5 5 5 4 33 84 98 100 100 100 98 22 62 39 55 88 89 100 100 92 100 100 100 100 100 100 100 100 100 100 84 54 100 100
0 0 0 0 4 0 5 5 5 5 5 5 5 5 5 11 96 48 35 16 53 82 90 100 100 97 100 99 80 83 98 98 100 100 100 100 100 96 94 92 100 100 100
0 0 0 1 4 5 5 5 5 5 5 5 5 5 34 95 78 100 96 99 96 87 82 79 81 91 100 99 98 98 100 100 100 100 100 100 100 100 100 100 100 100 100
0 0 0 5 5 5 5 5 5 5 5 5 5 20 100 100 75 89 97 79 95 95 95 97 96 100 100 100 100 100 100 100 100 100 100 100 100 100 100 100 100 100 100
0 1 5 5 5 5 5 5 5 5 6 67 65 73 100 93 86 97 92 94 93 94 100 100 100 100 100 100 100 100 100 100 100 100 100 100 100 100 100 100 100 100 100
0 5 5 5 5 5 7 44 5 7 88 100 75 93 86 98 96 90 95 88 93 97 100 100 100 100 100 100 100 100 100 100 100 100 100 100 100 100 100 100 100 100 100
2 5 5 5 5 5 74 100 96 100 100 51 66 93 99 100 100 99 100 97 100 100 100 100 100 100 100 100 100 100 100 100 100 100 100 100 100 100 100 100 100 100 100
5 5 5 5 5 5 62 100 99 6 8 87 85 92 85 96 100 100 100 100 100 100 100 100 100 100 100 100 100 100 100 100 100 100 100 100 100 100 100 100 100 100 100
4 5 5 5 5 5 47 100 92 74 100 100 88 90 100 100 100 100 100 100 100 100 100 100 100 100 100 100 100 100 100 100 100 100 100 100 100 100 100 100 96 100 100

GFSGL_prec_cloud_108.txt.gz
Cloud_Cover
100 100 100 100 100 100 100 100 100 100 100 100 100 100 100 100 100 100 100 100 100 100 100 99 57 5 2 0 0 0 0 0 0 0 0 0 0 0 0 0 0 0 0
100 100 100 100 100 100 100 100 100 100 100 100 100 100 100 98 91 100 100 98 28 56 88 7 4 0 0 0 0 0 0 4 5 5 1 0 4 2 0 0 0 0 0
100 100 100 100 100 100 100 100 100 99 100 100 100 100 100 100 91 78 86 100 100 66 5 0 0 0 0 0 3 0 3 5 5 5 5 5 5 0 1 4 4 1 2
100 100 100 100 100 100 100 100 100 87 98 98 100 100 98 93 88 100 100 42 5 1 0 0 0 0 1 5 5 4 5 5 5 5 15 55 6 5 5 5 5 5 2
100 100 100 100 100 100 100 78 90 95 99 100 100 94 65 100 75 6 3 0 0 0 0 3 4 5 5 5 5 99 44 17 5 12 62 98 66 84 54 62 65 92 13
5 35 51 49 74 76 53 56 100 100 100 100 80 20 6 4 0 0 0 4 2 5 5 5 5 5 5 5 34 68 60 72 13 100 100 100 100 97 100 100 100 100 100
5 5 5 5 57 74 74 100 98 84 19 64 25 3 0 0 0 0 3 5 5 5 5 5 5 5 5 5 4 4 4 5 17 95 82 86 100 73 74 89 90 100 93
4 4 5 5 5 5 20 9 5 4 2 0 0 0 0 0 0 3 5 5 5 5 5 5 5 5 3 5 5 5 5 5 5 5 5 5 38 49 70 43 92 100 100
1 4 3 4 1 0 0 0 0 0 0 0 0 0 4 5 5 5 5 5 1 0 0 5 5 5 5 34 100 99 75 95 73 42 68 97 100 100 100 100 100 100 100
4 3 0 0 0 0 0 0 3 5 5 5 1 1 0 0 0 4 5 5 5 5 5 5 61 90 89 100 100 100 100 47 15 54 68 88 68 43 86 80 82 98 100
0 0 0 0 0 0 1 5 5 5 5 0 0 0 0 0 0 5 5 31 96 100 94 100 100 85 100 86 100 91 83 100 99 100 100 100 97 100 100 98 73 84 100
0 0 0 0 0 4 5 5 4 1 0 0 1 5 5 5 5 5 97 100 100 100 100 100 100 100 100 100 100 96 84 99 73 28 36 97 100 100 98 77 80 91 100
0 0 0 0 5 1 0 0 0 0 0 5 5 5 5 5 16 10 10 34 93 100 100 100 100 100 93 93 95 74 99 6 5 20 44 100 100 100 100 98 91 87 100
0 0 0 0 0 0 0 0 0 4 5 5 5 5 5 5 84 25 52 84 99 100 100 92 78 87 81 82 12 72 86 46 34 95 100 100 100 100 100 100 100 100 100
5 4 0 0 2 5 5 0 3 5 28 78 59 68 61 30 83 100 100 100 100 100 100 98 71 88 86 98 88 99 100 100 100 100 100 100 100 100 100 100 100 99 100
5 4 1 5 5 5 4 0 1 5 5 5 6 59 63 86 100 100 100 100 100 100 92 63 62 79 99 100 100 100 100 100 97 100 100 100 100 100 100 100 100 100 100
5 5 1 0 4 5 5 5 5 4 5 5 5 6 75 100 100 100 100 100 72 52 86 89 91 93 100 100 100 100 100 100 100 100 100 100 100 100 100 100 100 100 100
5 5 0 5 5 5 5 5 5 5 5 5 5 28 30 65 97 100 98 75 68 97 76 77 90 73 81 98 100 100 100 88 96 89 100 99 100 100 100 100 100 100 100
5 5 4 5 5 5 5 5 5 5 5 12 42 46 5 30 93 66 80 75 94 100 100 100 93 86 94 100 100 98 98 96 97 95 86 100 100 100 100 100 100 100 100
5 4 3 5 5 5 5 5 5 5 10 69 100 100 99 99 70 59 52 76 100 100 98 96 93 100 100 100 99 99 100 97 100 99 90 100 100 100 100 100 100 100 100
5 5 5 5 5 5 5 5 5 5 5 66 75 85 100 91 80 86 99 89 100 100 100 100 100 100 100 100 100 100 100 100 100 100 100 100 100 100 100 100 100 100 100
5 5 5 5 5 5 5 5 5 5 57 100 100 100 100 100 99 94 97 100 100 100 100 100 100 100 100 100 100 100 100 100 100 100 100 100 100 100 100 100 100 100 100
5 5 5 5 5 5 5 5 33 77 100 100 100 100 100 100 100 100 100 100 100 100 100 100 100 100 100 100 100 100 100 100 100 100 100 100 100 100 100 100 100 96 100
5 5 5 5 5 5 5 54 100 100 100 100 98 100 96 79 100 95 100 100 100 100 100 100 100 100 100 100 100 100 100 100 100 100 100 100 100 100 100 100 100 100 100
5 5 5 5 5 17 28 100 100 100 100 100 90 97 77 82 89 100 100 100 100 100 100 100 100 100 100 100 100 100 100 100 100 100 100 100 100 100 100 100 100 100 97
5 5 5 5 5 5 42 100 100 100 100 100 98 83 94 99 97 100 100 100 100 100 100 100 100 100 100 100 100 100 100 100 100 100 100 100 100 100 100 100 100 100 100

GFSGL_prec_cloud_111.txt.gz
Cloud_Cover
100 100 100 100 100 100 100 100 100 100 100 100 100 100 100 100 100 100 100 100 100 100 100 100 100 28 30 11 29 41 4 4 4 0 2 0 0 0 0 0 0 0 0
100 100 100 100 100 100 100 100 100 100 100 100 100 100 100 100 100 100 100 100 100 100 99 57 5 5 10 5 5 5 5 0 3 5 5 5 4 4 5 1 0 0 5
100 100 100 100 100 100 100 100 100 100 100 100 100 100 100 100 100 100 100 100 89 13 4 6 20 60 39 48 83 5 0 1 4 5 5 6 5 5 5 5 2 5 5
100 100 100 100 100 100 100 100 100 100 100 100 100 100 100 100 74 100 100 100 93 31 92 98 56 5 17 1 4 5 5 5 59 59 8 5 5 5 11 5 15 56 54
100 100 100 100 100 100 100 100 100 100 99 100 100 100 100 96 98 54 14 26 8 28 77 17 4 5 5 5 5 31 75 100 100 99 16 58 52 55 76 96 100 100 83
100 100 100 100 100 100 94 100 100 100 100 100 100 100 100 100 96 5 3 54 3 5 5 5 5 5 5 5 5 59 90 100 98 78 48 94 42 98 75 75 100 100 97
99 97 100 96 100 100 98 100 100 100 100 100 90 19 5 5 5 5 5 6 5 5 5 5 5 5 5 5 5 5 4 5 5 7 51 34 39 73 87 59 93 98 100
82 54 40 66 67 74 84 46 63 67 85 95 53 7 3 2 3 1 3 5 5 3 4 4 5 4 5 5 5 5 5 47 27 5 12 15 23 5 73 26 46 82 100
6 7 43 61 69 49 34 36 44 51 7 5 0 0 0 0 0 0 2 5 5 5 5 5 5 5 5 17 96 100 100 80 78 61 62 95 100 100 100 100 100 100 100
4 5 5 5 0 2 5 5 3 0 4 5 1 0 0 0 0 5 5 5 5 8 17 30 65 100 100 100 100 100 100 43 21 42 41 28 21 41 65 90 100 85 100
0 2 0 0 0 0 0 3 5 5 3 0 0 0 0 1 5 5 24 96 100 100 100 100 100 100 100 100 100 100 79 64 100 100 66 96 90 100 93 93 76 75 98
0 0 0 0 0 0 0 0 0 2 0 1 5 5 5 5 5 6 97 100 100 96 100 100 100 100 92 100 99 97 99 100 82 100 15 13 15 48 53 88 69 80 99
0 0 0 0 0 0 0 0 0 0 4 5 6 6 6 5 5 5 18 32 92 83 96 80 100 100 88 90 89 97 96 56 35 82 99 100 91 85 93 95 92 100 100
5 3 4 2 0 0 0 0 5 5 5 38 32 11 16 26 8 42 78 98 75 90 48 63 99 99 80 26 14 68 74 91 100 100 100 100 99 100 100 100 100 100 100
5 5 5 5 3 0 0 3 5 5 12 5 5 20 68 78 80 100 100 100 100 100 100 34 93 100 100 97 91 90 90 84 86 94 100 100 100 100 100 100 100 100 100
5 5 12 5 4 0 5 3 1 4 5 5 10 65 83 92 100 100 100 100 100 94 58 50 66 74 74 81 86 89 100 100 100 100 100 100 99 100 100 95 98 100 100
55 64 32 5 4 5 5 0 5 3 5 5 26 70 100 100 100 100 100 100 42 33 59 65 84 95 99 100 100 100 100 100 100 100 100 100 100 95 100 100 100 100 100
98 88 17 5 5 5 3 4 5 5 5 5 10 75 64 100 100 97 100 60 29 61 100 100 100 100 100 100 100 100 100 100 100 100 100 100 99 100 94 100 100 100 100
98 62 6 5 5 5 5 5 5 5 5 54 64 69 61 99 35 43 70 98 100 99 95 100 100 99 100 100 100 100 100 100 100 99 100 100 96 100 99 100 100 100 100
86 65 8 6 5 5 5 5 5 5 34 91 100 100 100 98 56 84 95 100 100 100 100 100 100 100 100 100 100 100 100 100 100 100 100 100 99 99 100 100 100 100 100
70 74 6 31 5 5 5 5 5 47 87 100 100 100 100 100 100 100 100 100 100 100 100 100 100 100 100 100 100 100 100 100 100 100 100 100 100 100 100 100 100 100 100
100 60 8 6 5 5 6 5 35 89 100 100 100 100 100 100 100 100 100 100 100 100 100 100 100 100 100 100 100 100 100 100 100 100 100 100 100 100 100 100 100 100 100
100 35 20 5 5 5 5 5 73 100 86 100 100 100 98 99 100 100 100 100 100 100 100 100 100 100 100 100 100 100 100 100 100 100 100 100 100 100 100 100 100 100 100
99 9 7 5 5 5 6 61 90 85 99 100 97 98 100 100 100 100 100 100 100 100 100 100 100 100 100 100 100 100 100 100 100 100 100 100 100 100 100 100 100 100 100
86 7 5 5 5 5 5 94 90 100 100 100 86 94 100 100 96 100 100 100 100 100 100 100 100 100 100 100 100 100 100 100 100 100 100 100 100 100 100 100 100 100 100
53 5 5 5 5 5 22 100 100 100 100 100 90 92 100 100 96 100 100 100 100 100 100 100 100 100 100 100 100 100 100 100 100 100 100 100 100 100 100 100 100 100 100

GFSGL_prec_cloud_114.txt.gz
Cloud_Cover
100 100 100 100 100 100 100 100 100 100 100 100 100 100 100 100 100 100 100 100 100 100 100 100 100 100 100 100 100 97 100 82 59 73 5 5 5 5 2 2 4 5 5
100 100 100 100 100 100 100 100 100 100 100 100 100 100 100 100 100 100 100 100 100 100 100 100 100 100 100 100 100 100 100 95 56 5 5 4 5 5 5 5 5 5 5
100 100 100 100 100 100 100 100 100 100 100 100 100 100 100 100 100 100 99 93 100 100 100 100 100 100 100 100 100 100 93 5 5 6 5 3 3 5 5 10 5 21 33
100 100 100 100 100 100 100 100 100 100 100 100 100 100 100 100 100 100 100 100 98 70 68 59 96 76 77 99 46 11 5 5 10 72 36 100 59 35 68 87 94 100 100
100 100 100 100 100 100 100 100 100 100 100 100 100 100 100 100 100 100 100 100 100 44 86 15 6 5 5 40 47 5 18 50 100 99 100 97 79 91 100 100 84 100 100
100 100 100 100 100 100 100 100 100 100 100 100 100 100 100 100 100 100 99 100 100 9 97 5 25 96 85 15 5 46 92 100 100 100 100 73 100 100 100 92 100 100 100
100 100 96 5 5 25 92 88 83 97 100 100 100 98 39 66 69 51 92 70 14 9 12 49 12 5 5 5 7 24 5 6 23 75 75 14 88 98 100 100 100 100 100
100 100 100 83 53 61 24 17 54 68 91 100 100 100 34 5 4 14 5 5 5 5 5 6 5 5 5 5 5 5 5 59 94 100 100 100 100 99 100 100 100 99 98
98 80 11 23 44 63 60 19 56 98 70 95 35 5 5 5 5 5 5 5 3 4 5 5 5 5 9 71 98 98 70 78 92 99 100 100 97 100 100 100 100 100 100
88 100 100 100 100 94 100 96 94 98 31 5 4 2 0 0 3 5 5 5 5 27 91 97 100 100 97 100 100 100 74 68 97 100 99 91 86 36 34 42 73 100 100
0 3 5 22 33 8 5 8 5 4 1 0 0 1 5 4 5 5 7 19 99 98 100 100 100 83 57 98 100 64 47 84 83 100 100 100 100 100 97 88 100 100 98
4 1 0 0 1 0 0 0 0 0 0 0 3 4 5 5 5 5 17 74 81 100 100 100 100 100 98 99 100 92 90 96 100 98 100 100 100 100 100 100 100 98 100
2 4 0 0 0 0 0 0 0 0 4 5 5 5 5 5 34 50 81 98 100 99 100 95 97 100 100 98 98 100 100 100 100 100 100 100 100 100 100 100 100 100 100
0 5 5 5 5 5 4 0 0 5 5 5 5 5 71 86 86 100 100 100 100 100 100 100 98 29 27 67 69 91 100 100 100 100 100 100 100 100 100 100 100 100 100
0 4 5 5 5 5 5 5 1 5 5 5 5 74 79 96 100 100 100 100 100 100 94 100 100 100 100 100 100 100 94 100 100 100 100 100 100 100 100 100 100 100 100
0 5 5 5 5 5 5 5 5 5 5 5 53 96 97 100 100 100 100 100 99 74 100 100 100 100 100 100 100 100 100 100 96 90 100 100 100 99 91 100 100 100 100
1 5 5 11 42 9 5 5 66 35 2 5 47 100 100 100 100 100 100 99 100 98 100 100 100 100 100 100 100 100 100 100 100 100 100 100 100 100 100 100 100 100 100
0 5 26 74 76 46 8 5 91 5 5 5 33 88 100 100 99 100 100 99 89 100 100 100 95 100 100 100 100 100 100 100 100 100 100 100 100 100 100 100 100 100 100
0 2 46 99 100 36 6 37 25 5 5 10 54 73 100 100 100 100 100 100 100 100 94 100 100 100 100 100 100 100 100 100 100 100 100 100 100 100 100 100 100 100 100
4 0 56 100 100 73 23 85 5 5 5 81 100 100 100 94 96 100 100 100 100 100 100 100 100 100 100 100 100 100 100 100 100 100 100 100 100 100 100 100 100 100 100
5 0 5 100 100 92 59 32 5 5 5 73 100 100 100 100 100 100 100 100 97 100 100 100 100 100 100 100 100 100 100 100 100 100 100 100 100 100 100 100 100 100 100
5 2 5 99 100 52 82 34 6 67 13 83 100 100 100 100 100 100 99 100 100 100 100 100 100 100 100 100 100 100 100 100 100 100 100 100 100 100 100 100 100 100 100
9 4 2 78 96 14 60 6 27 53 59 80 100 100 100 100 100 100 100 100 100 100 100 100 100 100 100 100 100 100 100 100 100 100 100 100 100 100 100 100 100 100 100
18 5 0 62 84 26 61 5 64 52 75 83 100 100 100 100 100 100 100 100 100 100 100 100 100 100 100 100 100 100 100 100 100 100 100 100 100 100 100 100 100 100 100
5 5 5 37 72 26 26 59 87 99 99 88 100 100 100 100 100 100 100 100 100 100 100 100 100 100 100 100 100 100 100 100 100 100 100 100 100 100 100 100 100 100 100
5 16 75 97 67 19 5 71 94 100 100 96 97 100 100 100 100 100 99 100 100 100 100 100 100 100 99 96 100 99 100 100 100 100 100 100 100 100 100 100 100 100 100

GFSGL_prec_cloud_117.txt.gz
Cloud_Cover
100 100 100 100 100 100 100 100 100 100 100 100 100 100 100 100 100 100 100 100 100 100 100 100 94 95 100 100 100 100 100 100 96 97 100 100 78 5 5 5 5 2 0
100 100 100 100 100 100 100 100 100 100 100 100 100 100 100 100 100 100 100 100 100 100 100 100 100 100 100 100 100 100 100 100 100 92 72 10 6 3 5 5 5 5 5
100 100 100 100 100 100 100 100 100 100 100 100 100 100 100 100 99 100 100 100 100 100 100 100 100 100 100 100 97 52 81 23 38 20 5 5 6 5 5 9 5 6 5
100 100 100 100 100 100 100 100 100 100 100 100 100 100 100 100 100 100 100 93 96 72 41 81 53 98 67 8 14 5 5 82 67 5 31 95 9 24 18 48 70 5 31
88 100 100 100 100 100 100 100 100 100 100 100 100 100 100 100 100 88 60 98 18 25 41 58 66 35 50 4 5 4 5 5 5 31 97 100 100 80 97 70 67 16 82
100 100 100 100 100 100 100 100 100 100 100 100 100 100 100 99 84 67 23 98 100 92 30 98 6 5 14 13 56 60 70 5 8 8 59 76 32 84 93 100 57 83 100
90 82 94 100 100 100 100 100 100 100 100 100 100 100 100 85 22 22 50 9 50 61 6 5 11 6 7 28 50 76 72 48 88 74 5 7 7 5 70 28 81 95 74
100 15 5 5 16 100 100 100 100 91 100 100 74 10 53 58 48 51 55 5 5 5 19 16 5 5 5 12 10 5 5 5 69 97 93 61 46 75 89 95 83 84 74
100 70 27 82 7 8 8 5 12 7 12 45 18 8 8 6 5 18 6 3 3 1 4 5 19 10 44 97 100 100 99 94 87 97 100 100 100 100 84 100 100 100 100
15 9 64 100 99 82 74 81 30 17 12 54 36 90 24 67 51 3 5 5 2 3 5 5 5 6 69 100 100 100 81 71 100 100 96 89 94 62 16 72 91 98 100
0 0 0 0 4 30 72 98 100 99 93 78 17 4 3 4 5 5 5 5 3 4 19 16 82 86 99 100 100 100 87 85 100 100 88 97 90 94 62 34 40 61 100
0 0 0 1 28 100 39 5 5 5 5 5 3 4 0 2 5 3 10 12 62 98 72 77 75 82 95 98 100 100 100 100 87 78 80 87 74 78 97 99 98 100 99
0 0 0 0 50 72 24 5 5 5 5 0 0 0 5 5 5 73 71 77 100 100 100 100 96 90 57 28 13 79 100 99 67 65 98 100 100 100 100 100 100 100 100
5 0 0 0 5 71 8 5 14 5 5 5 5 5 9 56 82 88 67 100 100 98 100 99 72 85 100 100 100 100 100 100 100 100 95 90 87 88 98 100 100 100 100
5 5 0 0 0 5 5 6 12 5 5 5 5 9 72 71 100 93 100 100 100 90 88 58 100 100 93 99 100 100 100 100 100 100 100 100 100 100 100 100 89 94 100
33 5 5 0 0 5 5 10 38 26 7 5 6 81 93 100 100 100 100 100 100 97 100 100 88 92 100 100 100 100 100 98 72 75 83 100 100 100 100 100 100 100 100
46 13 7 13 0 3 5 73 99 56 6 5 5 22 100 100 100 99 100 100 100 100 100 100 100 100 100 100 100 86 92 99 100 100 100 99 99 100 100 100 100 100 100
88 9 10 17 9 0 10 84 100 88 41 42 28 80 100 100 100 100 100 100 100 100 100 99 95 100 100 100 100 100 100 100 100 100 100 100 100 100 100 100 98 100 100
100 68 56 6 12 5 1 46 100 76 6 6 29 79 100 100 100 100 100 100 100 98 94 100 100 100 100 100 100 100 100 100 100 100 83 100 94 99 98 85 96 99 100
100 87 60 40 5 5 2 30 100 100 36 5 57 100 100 100 100 100 100 100 100 99 100 100 100 100 100 100 100 100 100 100 100 100 98 92 94 93 98 100 99 100 100
100 100 99 100 28 5 5 5 79 100 90 11 70 100 100 100 100 100 100 100 100 100 100 100 100 100 100 100 100 100 100 100 100 100 100 100 100 100 100 100 100 100 100
100 100 84 100 66 11 5 5 73 100 81 42 65 97 100 100 100 100 100 100 100 100 100 100 100 100 100 100 100 100 100 100 100 100 100 100 100 100 100 100 100 100 100
100 100 99 60 50 28 5 38 66 100 94 72 71 100 100 100 100 100 100 100 100 100 100 100 100 100 100 100 100 100 100 100 100 100 100 100 100 100 100 100 100 100 100
100 100 95 82 48 39 16 66 76 100 100 69 83 100 100 100 100 100 100 100 100 100 100 100 100 100 100 100 100 100 100 100 100 100 100 100 100 100 100 100 100 100 100
100 82 96 35 13 66 97 91 83 100 100 78 89 96 100 100 100 100 100 100 100 99 99 100 100 100 100 100 100 100 100 100 100 100 100 100 100 100 100 100 100 100 100
55 21 10 32 5 51 100 96 100 100 100 94 91 98 100 100 100 100 100 100 100 100 100 100 100 100 100 100 100 100 100 100 100 100 100 100 100 100 100 100 100 100 100

GFSGL_prec_cloud_123.txt.gz
Cloud_Cover
100 100 100 100 100 100 100 100 100 100 100 100 100 100 100 100 100 100 100 100 100 100 100 100 100 100 100 100 100 100 100 98 94 100 98 82 54 26 11 0 2 1 1
100 100 100 100 100 100 100 100 100 100 100 100 100 100 100 100 100 100 100 100 100 100 100 100 100 100 100 100 100 97 100 98 23 54 98 14 5 4 5 0 0 0 5
100 100 100 100 100 100 100 100 100 100 100 100 100 100 100 100 100 100 100 100 100 100 100 100 100 100 100 76 48 58 75 80 25 5 5 10 83 29 5 5 16 82 5
100 100 100 100 100 100 100 100 100 100 100 100 100 100 100 100 83 34 52 84 100 100 100 100 100 100 100 46 87 100 100 87 19 5 40 7 26 5 5 8 5 5 5
100 100 100 100 100 100 100 100 100 97 99 100 100 100 100 100 100 100 65 46 92 100 100 100 100 100 51 91 77 25 8 5 26 5 5 5 5 5 5 5 5 5 5
100 100 100 100 100 100 100 100 100 100 100 100 100 100 100 100 100 100 100 92 100 97 16 20 97 99 91 68 46 7 5 18 12 42 14 57 60 6 5 5 7 36 5
1 59 99 100 100 100 100 100 100 100 100 100 100 100 100 100 100 100 100 92 83 100 94 75 36 100 53 57 47 77 10 1 4 5 5 5 5 5 5 5 5 5 5
0 0 0 0 1 4 64 100 100 84 19 4 6 100 100 100 94 100 58 78 89 78 98 100 98 84 68 86 10 17 5 5 5 5 5 5 20 47 92 99 100 100 99
0 0 0 0 0 0 0 0 0 0 0 0 0 3 17 10 4 5 6 11 44 25 64 24 36 32 16 9 77 79 68 52 5 5 5 12 58 37 14 10 10 79 98
0 0 0 0 0 0 0 0 0 0 0 0 0 0 1 4 5 5 6 6 34 12 9 18 24 5 33 100 100 100 100 76 85 100 100 98 100 77 62 76 79 68 95
0 0 0 0 0 0 0 0 0 0 0 0 0 0 1 3 5 23 84 89 100 100 13 5 5 28 100 100 100 89 100 100 100 100 100 87 5 5 5 63 99 100 100
0 0 0 0 0 0 0 0 0 0 0 0 0 3 5 5 5 56 34 86 98 25 7 16 99 100 100 100 73 100 100 19 10 5 63 96 100 100 93 74 50 89 100
5 4 4 0 0 0 0 0 0 0 0 0 0 0 5 5 5 11 5 24 23 100 38 77 62 85 70 11 24 54 11 5 7 8 5 6 76 90 100 100 87 92 17
5 5 5 5 5 0 0 2 1 0 0 0 0 4 5 5 5 5 10 90 92 5 99 28 69 7 5 6 6 25 76 55 52 31 89 63 32 9 5 5 5 21 67
24 5 5 5 5 5 5 5 5 5 2 5 4 5 5 45 84 100 100 100 100 100 100 77 64 51 80 88 98 100 100 99 100 100 100 100 100 100 92 17 5 8 75
65 49 27 49 5 5 8 7 5 7 5 5 5 5 5 54 100 100 100 100 100 100 95 100 100 96 100 97 82 99 100 100 100 100 100 100 98 100 100 100 89 54 72
91 58 55 58 54 69 91 99 95 60 5 5 5 10 9 99 98 100 100 100 100 100 100 100 100 57 90 85 92 100 100 100 100 100 100 100 100 100 100 100 100 100 100
84 52 90 71 89 92 100 100 98 34 18 5 5 9 7 73 100 100 100 100 100 99 100 100 93 99 100 100 100 100 100 100 100 100 100 100 100 100 100 100 100 100 100
100 92 98 100 100 100 100 100 100 100 100 34 5 5 5 86 100 100 100 100 100 100 100 100 100 100 100 100 100 100 100 100 100 100 100 100 100 100 100 100 100 100 100
96 100 99 100 100 100 100 100 100 100 100 100 58 5 55 89 100 100 100 100 100 100 100 99 100 100 100 100 100 100 100 100 100 100 100 100 100 100 100 100 100 100 100
95 100 100 100 100 100 100 100 100 100 100 100 50 5 9 99 100 100 100 100 96 100 100 100 100 100 100 100 100 100 100 100 100 100 100 100 100 100 100 100 100 100 100
100 100 100 97 100 100 100 100 100 100 100 60 5 5 5 55 100 100 100 100 100 100 100 100 100 100 100 100 100 100 100 100 84 100 99 100 100 100 100 100 100 100 100
100 100 100 100 100 100 100 100 100 100 100 100 36 5 5 70 100 100 100 100 100 100 100 100 100 100 100 100 100 100 100 100 100 100 100 100 100 100 100 100 100 100 100
100 88 100 100 100 100 100 100 100 100 100 98 6 5 15 65 93 100 100 100 100 100 94 85 82 100 100 100 100 100 100 100 100 100 100 100 100 100 100 100 100 100 100
100 100 100 100 100 100 100 100 100 100 90 18 5 6 89 63 100 100 100 100 100 100 81 87 98 100 100 100 100 100 100 100 100 100 100 100 100 100 100 100 100 100 100
100 100 100 100 100 91 61 38 20 5 5 5 5 84 90 86 100 100 100 100 100 85 73 100 100 100 98 95 100 100 100 100 100 100 100 100 100 100 100 100 100 100 100

GFSGL_prec_cloud_126.txt.gz
Cloud_Cover
100 100 100 100 100 100 100 100 100 100 100 100 100 100 100 100 100 100 100 100 100 100 100 100 100 100 100 100 100 100 100 100 100 100 100 88 25 36 5 5 30 62 58
100 100 100 100 100 100 100 100 100 100 100 100 100 100 100 94 100 100 100 100 100 100 100 100 100 100 100 100 100 100 100 100 100 100 100 100 24 75 97 13 10 81 5
96 100 100 100 100 100 100 100 100 100 100 100 100 100 100 100 100 100 100 100 100 100 100 87 92 90 100 100 100 100 100 99 100 100 100 100 51 20 17 5 5 5 5
91 100 100 100 100 100 100 100 100 100 100 100 100 100 99 84 29 50 62 32 93 42 10 94 100 100 100 100 100 100 100 100 100 67 99 63 76 2 2 4 4 3 0
30 72 100 100 100 100 100 100 100 100 100 100 100 100 100 96 24 29 36 61 48 65 99 100 100 100 100 100 92 83 100 100 49 55 13 10 5 4 5 5 5 5 1
13 98 100 100 100 100 100 100 100 100 100 100 100 100 100 100 100 100 100 82 96 99 75 100 100 100 100 82 68 13 17 6 5 6 9 5 5 3 1 5 4 5 5
3 72 100 83 100 100 100 100 100 100 100 100 100 99 89 100 100 100 100 88 88 100 100 100 100 100 66 53 44 26 5 30 13 30 5 4 4 3 5 9 100 100 90
100 84 100 100 100 100 100 100 100 100 100 100 100 100 100 100 100 100 100 100 100 100 100 99 56 29 54 79 24 14 82 36 4 5 37 26 5 41 95 100 72 51 12
5 15 100 100 100 100 100 100 100 100 100 100 100 100 100 100 100 100 100 100 74 10 5 10 79 20 77 25 70 86 100 100 98 100 37 52 95 91 74 87 25 60 89
4 5 8 10 5 4 45 91 95 97 96 98 97 94 97 93 75 15 4 16 14 47 91 90 100 96 90 100 100 100 97 40 100 45 5 22 29 5 5 5 67 100 100
0 0 0 3 4 4 5 0 0 0 0 0 0 0 0 0 4 5 100 88 98 100 100 100 99 100 100 100 70 70 100 91 35 5 5 5 5 9 82 75 87 86 87
4 1 3 4 0 0 0 0 0 0 0 0 0 0 0 0 5 100 94 97 100 100 100 100 100 100 100 93 71 61 35 6 5 5 5 5 7 5 5 26 98 76 94
61 6 5 5 5 5 0 0 0 0 0 0 0 0 0 1 5 5 5 100 100 100 92 89 89 100 91 12 8 75 5 5 59 28 21 75 98 100 18 5 5 5 5
82 83 47 7 5 5 5 5 5 5 5 5 5 5 5 5 5 5 30 100 100 57 100 100 86 34 29 7 30 90 100 100 100 100 100 100 100 100 100 100 100 11 50
100 98 86 87 54 38 5 5 5 5 5 10 5 5 5 5 15 94 100 100 100 100 100 80 94 83 92 96 100 100 100 100 100 100 100 100 100 100 86 100 100 100 100
100 100 100 84 98 75 51 47 54 5 12 6 22 41 8 35 100 99 100 100 100 100 100 100 100 100 100 97 85 100 100 100 100 100 100 100 100 100 100 86 94 99 93
100 100 100 100 100 96 78 54 82 83 71 43 40 36 48 28 100 100 100 100 100 100 100 100 100 100 100 95 100 100 100 100 100 100 100 100 100 100 100 100 100 100 91
100 100 100 99 100 100 98 100 86 100 100 100 100 71 54 52 100 100 100 100 100 98 100 100 100 100 100 100 100 100 100 100 100 100 100 100 100 100 100 100 100 100 100
100 99 74 100 100 100 97 100 93 100 100 100 100 84 64 54 97 100 100 98 100 100 100 100 100 100 100 100 100 100 100 100 100 100 100 100 100 100 100 99 100 100 100
100 100 95 100 100 100 98 100 100 100 100 99 100 100 100 99 50 85 100 100 89 90 100 100 100 100 100 100 100 100 100 100 100 100 100 68 75 99 100 100 95 100 100
100 89 81 100 100 91 99 100 99 100 100 94 100 100 100 100 100 72 100 100 100 86 100 100 100 100 100 100 100 100 100 100 100 100 73 100 91 100 100 100 100 100 100
77 99 100 100 97 99 100 100 98 100 100 100 100 100 100 100 38 68 100 100 100 100 100 100 100 100 100 100 100 100 100 100 100 100 100 100 100 99 100 100 100 100 100
84 100 100 100 100 100 100 96 100 100 100 100 100 100 100 100 8 27 85 100 100 100 100 99 91 96 100 100 100 100 100 100 100 100 100 100 100 100 100 100 100 100 100
54 100 100 100 100 100 100 100 100 100 100 100 100 100 100 55 10 62 82 86 83 87 100 81 77 100 100 100 100 100 100 100 100 100 100 100 100 100 100 100 100 100 100
100 100 100 100 100 100 100 100 100 100 100 100 100 100 49 5 5 53 99 100 100 88 74 67 97 100 100 100 98 100 100 100 100 97 100 100 100 100 100 100 98 100 100
100 100 100 100 100 100 100 100 99 100 100 89 44 5 5 5 74 17 100 100 95 75 45 78 91 92 94 86 53 20 86 100 100 100 100 100 100 98 100 100 100 100 100

GFSGL_prec_cloud_132.txt.gz
Cloud_Cover
100 99 100 100 100 100 100 100 100 100 100 100 100 100 100 100 100 100 100 100 100 100 100 100 100 100 100 100 100 100 100 100 100 100 100 96 45 6 44 63 98 97 100
100 100 100 100 100 100 100 100 100 100 100 100 100 100 100 100 100 100 100 100 100 100 100 100 100 100 100 100 100 100 100 100 100 100 100 14 5 10 100 100 100 100 100
100 100 100 100 100 100 100 100 100 100 100 100 100 100 100 100 100 100 100 100 100 100 100 100 100 100 100 100 100 100 100 99 100 100 100 100 100 100 100 100 100 100 100
65 92 100 100 100 100 100 100 100 100 100 100 100 100 100 100 100 100 100 100 100 100 100 100 100 100 100 100 100 100 100 100 100 100 100 100 100 100 100 100 100 100 100
8 2 60 98 100 100 100 100 100 100 100 100 100 100 100 100 100 100 100 100 100 100 100 100 100 100 100 100 100 100 100 100 100 100 100 100 100 100 100 100 100 100 86
0 0 0 2 26 89 100 100 100 100 100 100 100 100 100 100 100 100 100 100 100 100 100 100 100 100 100 100 100 100 100 100 100 100 100 100 100 100 100 5 5 33 88
0 0 0 0 0 0 0 1 5 35 62 86 100 100 100 100 100 100 100 100 100 100 100 100 100 100 76 53 71 7 69 80 98 95 100 76 15 31 32 97 100 100 100
0 0 0 0 0 0 0 0 4 6 5 5 14 9 59 59 17 18 54 53 52 76 63 31 34 81 37 19 96 100 98 100 100 87 53 69 85 86 95 96 97 68 56
0 2 0 0 0 0 0 0 0 5 33 94 99 96 58 44 53 66 11 5 13 38 14 17 55 100 100 100 100 100 100 76 99 66 49 20 10 5 10 8 5 42 26
0 0 2 5 5 2 4 5 2 0 0 0 0 0 0 3 21 2 0 0 1 4 29 78 94 90 59 48 100 100 100 99 72 37 5 5 5 5 6 6 23 43 49
2 0 0 0 2 5 5 14 23 5 5 0 0 0 0 0 6 11 9 5 5 5 5 5 5 21 100 100 71 100 91 100 100 14 5 5 5 10 74 71 7 49 100
5 5 5 5 5 5 5 8 29 29 7 3 0 0 0 0 0 5 25 6 35 66 40 58 17 22 35 69 94 100 100 100 26 6 90 100 100 99 78 6 5 5 6
5 5 5 5 5 5 5 5 5 5 5 5 4 0 3 1 5 5 5 11 95 83 100 100 100 100 100 100 100 100 99 15 98 100 100 100 100 100 94 38 23 19 5
5 22 7 5 5 7 5 5 5 5 5 5 5 5 5 5 5 5 5 87 100 100 100 100 100 100 96 33 14 100 100 100 100 100 100 100 100 100 100 100 73 6 26
5 82 75 5 5 51 31 64 45 26 7 5 5 5 5 5 5 5 6 96 100 100 100 100 100 100 91 100 100 100 100 100 100 100 100 100 100 100 100 100 100 100 100
7 46 76 14 5 53 38 16 50 93 74 69 10 5 5 24 72 100 91 88 100 100 100 100 100 100 100 100 100 100 100 100 100 100 100 100 100 100 100 100 100 100 99
100 100 100 92 81 91 10 5 58 80 89 61 67 50 94 100 100 100 100 100 100 100 100 100 100 100 100 100 100 100 100 100 100 100 100 100 100 100 100 100 100 100 100
97 100 100 82 100 100 99 10 52 78 83 75 54 73 98 100 100 100 100 100 100 100 100 100 100 100 100 100 100 100 100 100 100 99 96 100 100 100 100 100 100 100 100
100 95 100 98 100 100 100 92 61 95 91 56 69 65 57 79 100 100 100 100 100 100 100 100 100 100 100 100 100 100 99 100 100 100 100 100 100 100 58 100 96 100 100
100 100 100 100 100 100 100 100 100 96 97 69 72 80 73 99 100 100 100 100 100 100 100 100 100 99 97 100 100 100 100 100 100 100 100 100 100 100 92 100 100 95 79
100 99 75 100 100 100 100 100 86 65 91 54 71 67 92 100 100 100 100 100 100 100 100 100 100 100 100 100 100 100 100 100 100 100 100 100 100 98 100 100 100 100 100
98 94 59 87 98 100 99 100 91 93 100 100 98 90 100 100 100 100 100 100 100 100 93 100 100 100 100 100 100 100 100 100 100 100 100 99 100 100 100 100 100 100 100
100 100 100 100 100 100 100 100 100 89 100 100 100 100 100 100 100 100 100 100 100 100 100 83 100 100 98 81 93 100 100 100 100 100 100 100 98 98 99 84 91 84 80
100 100 100 100 100 100 100 100 100 100 100 100 100 100 100 100 100 100 100 100 100 100 52 68 84 70 85 100 100 100 100 98 96 100 100 100 100 100 93 92 100 100 100
84 100 100 100 100 100 100 100 100 100 100 100 100 100 100 100 100 100 100 100 99 100 85 98 94 83 99 100 96 89 73 82 47 95 86 100 100 100 100 100 100 100 100
96 98 93 83 100 100 100 100 100 100 100 100 100 100 100 100 100 100 94 90 68 97 100 98 86 100 95 82 90 98 100 100 88 100 100 99 84 100 100 100 100 100 100

GFSGL_prec_cloud_135.txt.gz
Cloud_Cover
100 100 100 100 100 100 100 100 100 100 100 100 100 100 100 100 100 100 100 100 100 100 100 100 100 100 100 100 100 100 100 100 100 100 100 100 100 100 100 82 79 100 100
100 100 100 100 100 100 100 100 100 100 100 100 100 100 100 100 100 100 100 100 100 100 100 100 100 100 100 100 100 100 100 100 100 100 100 100 100 100 86 100 100 100 100
100 100 100 100 100 100 100 100 100 100 100 100 100 100 100 100 100 100 100 100 100 100 100 100 100 100 100 100 100 100 100 100 100 100 100 100 100 100 100 100 100 100 100
98 90 100 100 100 100 100 100 100 100 100 100 100 100 100 100 100 100 100 100 100 100 100 100 100 100 100 100 100 100 100 100 100 100 100 100 100 100 100 100 100 100 100
100 100 100 100 100 100 100 100 100 100 100 100 100 100 100 100 100 100 100 100 100 100 100 100 100 100 100 100 100 100 100 100 100 100 100 100 100 100 99 100 100 100 46
57 100 100 100 98 100 100 100 100 100 100 100 100 100 100 100 100 100 100 100 100 100 100 100 100 100 100 100 100 100 100 100 100 100 100 100 100 100 100 96 100 58 68
0 0 0 0 0 0 0 4 84 100 100 100 100 100 100 100 100 100 100 100 100 100 100 100 100 100 100 100 100 100 100 100 100 100 100 100 100 100 100 98 80 82 32
0 0 0 0 0 0 0 0 0 0 0 6 98 100 100 98 100 97 100 100 100 100 100 92 46 20 20 26 9 94 56 80 96 89 95 100 100 100 83 43 27 16 9
0 0 2 0 0 0 0 1 0 0 0 0 0 0 0 0 0 0 5 22 29 1 0 0 0 0 0 5 4 5 5 41 91 98 29 17 6 5 28 8 7 5 6
0 0 5 5 0 0 0 4 5 10 12 5 5 1 0 2 0 0 0 0 0 0 0 0 1 5 20 28 76 100 100 100 98 85 22 5 5 5 13 5 7 26 95
0 0 4 5 5 5 5 5 2 0 3 5 5 5 5 5 4 6 5 5 5 5 5 4 5 23 100 100 100 100 100 100 100 51 8 38 12 5 5 5 5 59 100
5 3 5 5 10 5 5 5 5 5 4 5 4 2 5 5 5 5 30 5 57 90 32 70 13 97 100 100 100 100 100 100 80 24 77 97 94 81 58 6 5 5 38
13 5 5 5 5 5 5 5 5 5 5 5 5 5 2 0 0 5 6 5 6 52 100 100 100 100 100 100 100 100 100 97 94 100 100 100 100 100 100 100 82 69 28
5 5 6 71 81 10 5 8 54 55 20 5 5 5 5 5 5 5 5 1 5 39 98 100 100 100 100 100 100 100 100 100 100 100 100 100 100 100 100 100 100 100 65
5 5 17 89 88 81 97 42 7 92 42 64 5 5 5 5 5 5 5 5 5 56 88 96 100 100 100 100 100 100 100 100 100 100 100 100 100 100 100 100 100 100 100
5 5 26 65 92 100 82 100 94 98 99 100 56 6 5 5 5 5 9 20 87 97 97 99 100 100 100 100 100 100 100 100 100 100 100 100 100 100 91 100 100 80 88
5 5 5 46 99 100 100 100 100 100 59 91 98 87 5 5 5 5 22 5 73 87 73 98 100 100 100 100 100 100 100 100 100 100 100 100 100 100 100 93 87 100 90
68 15 5 5 73 85 98 100 97 68 73 18 5 5 5 5 5 26 16 21 62 60 74 86 100 100 100 100 100 100 100 100 100 100 100 99 100 100 99 97 100 97 97
77 75 55 53 93 97 85 83 91 81 92 72 80 84 13 8 57 61 53 57 72 87 81 100 100 100 100 100 100 100 100 98 98 94 100 99 96 96 99 100 100 96 100
62 10 64 54 72 98 98 100 100 95 100 100 75 80 83 40 64 62 55 55 92 99 100 100 100 100 100 100 94 91 96 81 98 94 99 92 92 100 96 98 90 100 93
5 77 91 100 100 100 100 100 100 100 100 100 86 89 98 96 84 66 61 66 100 100 100 100 100 100 100 99 99 100 98 100 100 100 100 100 100 97 100 100 100 99 100
5 44 100 100 100 100 96 87 100 100 100 100 100 100 98 100 100 100 100 100 100 100 100 100 100 100 100 100 86 77 94 94 100 100 100 100 99 98 99 93 86 97 100
5 86 100 97 100 100 100 100 100 100 100 100 100 100 100 100 100 100 100 100 100 100 100 100 100 97 84 48 58 83 88 98 100 100 100 100 100 97 99 100 100 100 100
5 67 98 100 100 100 100 100 100 100 100 100 100 100 100 100 100 100 100 100 100 100 98 46 47 47 54 90 100 92 100 100 94 85 100 100 100 100 100 100 100 100 100
5 78 64 100 100 100 100 100 100 100 100 100 100 100 100 100 100 100 100 100 100 21 5 5 55 100 44 74 72 74 100 100 100 100 81 100 100 100 96 100 100 99 100
46 58 14 97 100 100 95 98 100 100 100 100 100 100 100 100 100 100 98 75 21 5 20 97 100 100 100 89 42 21 100 100 100 100 100 100 100 100 100 100 63 95 72

GFSGL_prec_cloud_138.txt.gz
Cloud_Cover
100 100 100 100 100 100 100 100 100 100 100 100 100 100 100 100 100 100 100 100 100 100 100 100 100 100 100 100 100 100 100 100 100 100 100 100 100 100 100 100 96 100 100
100 96 100 100 100 100 100 100 100 100 100 100 100 100 100 100 100 100 100 100 100 100 100 100 100 100 100 100 100 100 100 100 100 100 100 100 100 100 100 100 100 100 100
100 100 100 100 100 100 100 100 100 100 100 100 100 100 100 100 100 100 100 100 100 100 100 100 100 100 100 100 100 100 100 100 100 100 100 100 100 100 100 100 100 100 100
100 100 100 98 100 100 100 100 100 100 100 100 100 100 100 100 100 100 100 100 100 100 100 100 100 100 100 100 100 100 100 100 100 100 100 100 100 100 100 100 100 100 100
100 77 60 51 72 100 100 100 100 100 100 100 100 100 100 100 100 100 100 100 100 100 100 100 100 100 100 100 100 100 100 100 100 100 100 100 100 100 100 100 100 100 47
100 100 100 100 100 100 100 100 100 100 100 100 100 100 100 100 100 100 100 100 100 100 100 100 100 100 100 100 100 100 100 100 100 100 100 100 100 100 37 74 81 29 5
76 96 88 76 64 63 85 81 99 100 100 100 100 100 100 100 100 100 100 100 100 100 100 100 100 100 100 100 100 100 100 100 100 100 100 81 12 98 100 91 42 26 5
0 0 0 0 0 0 0 0 0 0 44 93 90 100 100 100 100 100 100 100 100 100 100 100 100 100 100 100 49 13 7 4 8 63 66 94 100 100 100 93 32 9 5
0 0 0 0 0 0 0 0 0 0 0 0 1 8 16 7 1 0 0 0 0 1 0 0 0 0 0 0 5 5 5 61 48 77 88 6 32 52 49 42 24 8 5
4 0 0 0 0 0 0 0 0 0 0 0 0 5 5 5 5 3 5 5 4 0 0 2 0 5 4 5 46 95 100 97 100 100 100 84 60 45 75 62 21 7 10
0 5 5 2 1 1 2 5 5 5 5 5 0 1 0 3 4 1 3 5 5 5 5 5 14 39 29 41 81 83 95 99 100 100 100 100 100 100 100 87 100 100 84
0 0 5 5 5 8 40 48 5 5 5 12 15 6 5 4 5 28 13 4 5 5 13 34 81 15 100 95 100 97 100 100 100 100 100 100 100 100 100 99 100 94 94
0 0 0 0 3 8 62 99 71 5 5 5 5 9 76 5 5 5 23 5 5 5 6 21 53 93 100 100 100 97 100 100 100 100 100 100 100 100 100 97 100 100 100
5 2 5 5 5 5 5 5 12 6 76 82 51 72 82 82 12 51 52 21 13 9 14 33 14 90 88 100 82 100 100 100 100 100 100 100 100 95 100 100 99 100 90
5 4 1 5 25 82 98 78 73 50 68 100 100 100 100 100 100 100 89 83 19 9 17 35 42 100 100 100 100 100 100 100 100 100 100 100 100 100 100 100 69 90 98
5 5 2 5 5 28 70 10 13 73 100 100 100 94 60 31 15 5 5 5 5 5 64 100 100 93 85 100 100 100 100 100 100 100 100 100 100 92 100 100 100 100 100
4 5 4 18 5 5 5 20 14 100 71 32 86 96 16 5 5 5 17 11 50 17 92 100 86 82 96 96 99 95 87 100 100 96 100 100 100 100 100 100 100 100 100
3 1 4 5 5 16 48 30 13 65 57 57 79 80 62 70 16 5 32 7 98 96 100 94 100 100 96 94 98 100 100 100 100 100 100 100 100 100 100 100 100 100 100
5 5 5 39 77 43 25 35 82 88 60 77 97 75 82 69 33 22 14 11 94 72 65 89 100 95 100 97 98 97 83 97 100 100 100 100 100 100 100 100 100 100 100
5 5 5 24 93 100 100 94 100 94 65 98 85 98 100 74 61 97 96 75 98 100 100 100 100 100 100 100 100 98 100 98 98 100 95 96 100 98 100 100 100 100 100
5 5 5 7 100 96 100 100 100 100 97 100 100 100 100 100 100 100 100 100 100 100 100 100 100 100 100 100 100 100 99 98 100 100 100 100 100 100 100 100 100 100 100
42 4 5 34 99 100 100 99 100 100 100 100 100 100 100 100 100 100 100 98 90 100 100 100 100 100 100 100 100 97 100 100 100 100 100 100 100 100 100 100 100 100 100
7 5 35 98 83 100 100 100 99 98 100 100 100 100 100 100 100 100 100 95 100 100 100 100 100 100 100 100 100 100 100 100 100 100 100 100 100 100 100 100 100 100 100
80 5 5 44 99 100 100 100 100 100 100 100 100 100 100 100 100 100 100 98 100 100 100 100 100 100 100 96 100 100 100 100 100 100 99 100 100 100 100 100 100 100 100
7 5 5 57 97 100 100 100 100 100 100 100 100 100 100 100 100 100 96 100 100 100 100 75 86 88 100 100 100 100 100 100 100 100 99 100 100 100 100 100 100 100 100
5 4 3 4 5 82 100 100 99 90 96 100 100 96 88 100 98 99 100 100 64 27 36 60 70 68 94 100 100 100 100 100 100 100 100 100 100 100 100 100 100 100 100

GFSGL_prec_cloud_141.txt.gz
Cloud_Cover
100 100 100 100 100 100 100 100 100 100 100 100 100 100 100 100 100 100 100 100 100 100 100 100 100 100 100 100 100 100 100 100 100 100 100 100 100 100 100 100 100 100 100
100 100 100 100 100 100 100 100 100 100 100 100 100 100 100 100 100 100 100 100 100 100 100 100 100 100 100 100 100 100 100 100 100 100 100 100 100 100 100 100 100 100 100
100 90 100 100 100 100 100 100 100 100 100 100 100 100 100 100 100 100 100 100 100 100 100 100 100 100 100 100 100 100 100 100 100 100 100 100 100 100 100 100 100 100 100
100 100 100 100 100 100 100 100 100 100 100 100 100 100 100 100 100 100 100 100 100 100 100 100 100 100 100 100 100 100 100 100 100 100 100 100 100 100 100 100 100 100 100
100 100 99 56 72 67 69 100 100 100 100 100 100 100 100 100 100 100 100 100 100 100 100 100 100 100 100 100 100 100 100 100 100 100 100 100 100 100 100 100 100 100 100
100 80 98 100 100 100 100 100 100 100 100 100 100 100 100 100 100 100 100 100 100 100 100 100 100 100 100 100 100 100 100 100 100 100 100 100 100 100 100 100 99 35 2
100 100 100 100 97 92 82 99 100 100 100 100 100 100 100 100 100 100 100 100 100 100 100 100 100 100 100 100 100 100 100 100 100 100 100 100 99 86 48 100 14 8 5
71 36 4 0 0 0 0 47 100 87 100 100 100 100 100 100 100 100 100 100 100 100 100 100 100 100 100 100 100 95 19 77 98 63 24 13 65 99 100 94 46 20 5
0 0 0 0 0 0 0 0 0 0 0 1 8 41 100 100 100 98 55 97 100 100 100 100 100 100 20 0 1 5 5 15 13 5 21 5 5 5 5 6 62 41 48
0 0 0 0 0 0 0 0 0 0 0 0 0 0 0 0 0 0 0 0 0 0 5 5 5 5 5 2 2 40 25 96 100 100 99 100 39 29 14 54 39 66 87
0 0 0 0 0 0 0 0 0 0 0 1 4 5 3 2 5 4 5 5 4 5 5 5 10 10 20 18 9 100 100 100 100 100 100 100 90 100 100 100 100 99 100
0 0 0 0 0 0 0 0 1 5 5 5 5 21 81 10 5 5 5 5 5 5 9 15 78 25 98 72 100 87 100 100 100 100 100 100 100 100 100 100 100 100 100
0 0 0 0 0 0 0 4 19 93 95 78 5 5 5 5 5 27 5 5 16 75 88 80 86 67 81 100 100 100 100 100 99 100 100 100 100 100 100 100 100 100 100
0 0 0 0 1 5 5 5 5 5 5 5 5 5 5 38 29 30 90 86 86 77 71 79 70 23 100 97 100 99 100 100 100 100 100 100 100 100 100 100 100 100 100
0 0 0 0 0 0 1 4 5 5 5 5 6 61 26 30 22 60 32 5 5 11 8 40 100 100 100 100 100 100 100 100 100 100 100 100 100 100 100 100 100 100 98
0 0 0 0 0 0 0 0 3 5 5 5 16 16 58 33 20 22 5 5 5 5 10 50 100 100 100 100 100 100 100 100 100 100 100 100 100 100 100 100 100 100 100
0 0 0 0 0 0 2 5 5 5 5 5 5 7 5 5 45 12 5 25 20 11 8 25 100 100 100 100 100 100 100 100 100 100 100 100 100 100 100 100 100 100 100
1 0 0 5 5 5 5 11 56 84 84 75 74 48 42 73 62 67 64 70 100 95 100 99 100 100 100 100 100 100 100 100 100 100 100 100 100 100 88 100 100 100 100
30 5 5 10 50 5 5 75 98 100 86 82 96 100 99 78 98 100 100 100 100 100 100 100 93 100 91 100 100 100 100 100 100 100 100 99 98 100 100 100 100 100 100
20 12 82 24 72 11 21 56 22 52 70 98 100 100 100 100 100 100 100 100 100 100 100 100 100 100 95 100 100 100 100 100 100 100 100 100 100 100 100 100 100 100 100
100 100 85 100 99 6 13 48 73 93 99 96 100 100 100 100 100 100 100 100 100 100 100 100 91 91 100 100 100 100 100 100 100 100 100 100 100 100 100 100 100 100 100
79 100 100 100 100 90 5 75 97 95 97 100 100 100 100 100 100 100 100 100 100 100 100 100 100 100 100 100 100 100 99 100 100 100 100 100 100 100 100 100 100 100 100
100 100 100 100 100 84 94 100 100 100 100 100 100 100 100 93 100 91 87 100 100 100 100 100 100 100 100 100 100 100 100 100 100 100 100 99 91 100 100 100 100 100 100
100 100 100 100 100 50 68 78 100 100 100 100 100 100 99 100 100 99 100 100 84 100 98 100 100 100 100 100 100 100 100 100 100 100 100 100 100 100 100 100 100 100 100
100 100 100 100 100 59 38 100 100 84 97 100 100 92 100 99 95 85 76 95 92 99 90 48 98 100 100 100 100 100 100 100 100 100 100 100 100 100 100 100 100 100 100
100 100 100 100 100 100 88 19 46 33 92 71 92 100 100 100 32 36 22 66 32 6 6 31 100 100 100 100 100 100 100 100 100 100 100 100 100 100 100 100 100 100 100

GFSGL_prec_cloud_147.txt.gz
Cloud_Cover
100 100 100 100 100 100 100 100 100 100 100 100 100 100 100 100 100 100 100 100 100 100 100 100 100 100 100 100 100 100 100 100 100 100 100 100 100 100 97 83 90 100 100
100 100 100 100 100 100 100 100 100 100 100 100 100 100 100 100 100 100 100 100 100 100 100 100 100 100 100 100 100 100 100 100 100 100 100 100 100 99 90 95 100 100 98
100 100 100 100 100 100 100 100 100 98 100 100 100 100 100 100 100 100 100 100 100 100 100 100 100 100 100 100 100 100 100 100 100 100 100 100 100 100 100 100 99 100 97
100 100 100 100 100 100 100 100 100 100 100 100 100 100 100 100 100 100 100 100 100 100 100 100 100 100 100 100 100 100 100 100 100 100 100 100 100 100 100 81 99 100 100
100 100 100 100 100 100 100 100 100 100 100 100 100 100 100 100 100 100 100 100 100 100 100 100 100 100 100 100 100 100 100 100 100 100 100 100 100 100 100 100 100 100 100
88 96 100 100 100 100 100 100 100 100 100 100 100 100 100 100 100 100 100 100 100 100 100 100 100 100 100 100 100 100 100 100 100 100 100 100 100 100 100 100 100 100 100
100 100 100 95 99 100 100 97 95 92 100 100 100 100 100 100 100 100 100 100 100 100 100 100 100 100 100 100 100 100 100 100 100 100 100 100 100 100 100 100 100 100 47
100 100 100 100 100 100 92 57 23 0 1 0 50 100 100 100 100 100 100 100 100 100 100 100 100 100 100 100 100 100 100 100 100 100 100 100 100 100 98 9 5 5 5
100 100 100 99 67 2 0 0 0 0 0 0 0 0 6 70 74 99 100 100 100 100 100 100 100 100 100 100 100 100 100 15 5 5 5 5 10 21 5 5 5 5 5
100 87 30 0 0 0 0 0 0 0 0 0 0 0 0 0 0 0 0 2 2 26 88 62 54 99 100 100 78 2 5 5 7 100 100 94 100 7 29 5 5 5 14
5 5 0 0 0 0 0 0 0 0 0 0 0 0 0 0 0 0 0 0 0 0 0 0 0 0 16 3 1 3 5 18 100 100 100 100 97 100 100 100 100 100 100
5 6 5 0 0 0 0 0 0 0 0 0 0 0 0 0 0 0 0 0 0 0 0 0 3 8 24 5 5 11 30 96 100 100 100 100 100 100 100 100 100 100 100
5 5 5 0 0 0 0 0 0 0 0 0 0 0 0 0 0 0 0 2 5 5 5 5 5 5 5 5 5 70 89 100 100 100 100 100 100 100 100 100 100 100 100
4 4 5 1 0 0 0 0 0 0 0 0 0 0 0 0 0 5 5 5 5 5 5 5 5 5 5 5 36 100 100 100 100 100 100 100 100 100 100 100 100 100 100
5 5 5 5 0 0 0 0 0 0 0 0 0 0 1 2 5 5 5 75 92 87 7 5 14 25 5 5 24 100 100 100 100 100 100 100 100 100 100 100 100 100 93
5 5 4 3 0 0 0 0 0 0 0 4 3 4 5 5 6 84 100 100 99 100 97 70 78 65 5 59 16 85 100 100 98 97 92 93 97 100 100 100 100 100 100
5 5 5 5 0 0 0 1 5 5 5 5 5 5 16 66 96 100 100 100 92 100 100 65 62 24 5 61 46 73 58 99 82 78 96 95 99 100 100 100 100 100 100
56 7 5 4 4 6 5 5 20 73 78 21 99 23 98 100 95 99 100 100 92 79 71 91 99 75 73 46 34 75 97 98 97 98 100 100 100 100 100 100 100 100 100
10 5 5 4 6 100 100 98 74 100 64 100 100 100 100 98 100 100 100 99 100 100 94 100 94 99 50 67 20 8 44 48 88 100 100 100 100 100 100 100 100 100 100
42 6 5 5 5 95 94 100 63 65 100 96 100 100 100 100 100 100 100 100 100 100 98 74 83 87 59 11 72 100 100 100 100 99 97 100 100 98 100 100 100 100 99
5 2 5 6 14 16 9 99 100 100 99 90 100 100 100 98 84 90 100 63 100 78 34 68 93 97 100 100 96 24 5 25 97 99 100 100 89 99 100 100 100 100 100
97 100 100 100 92 5 37 100 91 15 52 92 64 70 56 79 100 92 47 89 100 82 73 10 14 16 21 18 7 30 36 88 100 100 92 100 97 74 78 98 100 99 100
54 21 8 2 5 11 56 62 10 50 77 16 29 14 41 99 100 83 99 100 98 67 5 5 5 5 5 7 26 44 100 100 99 100 92 87 91 100 100 100 100 100 100
97 18 8 6 5 24 5 5 5 50 97 19 5 67 100 99 90 100 100 100 74 5 5 5 5 5 5 100 100 100 98 100 92 98 98 99 96 90 98 100 100 100 100
100 72 5 5 5 6 6 5 15 99 35 5 4 24 98 82 24 99 100 98 14 7 12 11 5 5 9 91 100 100 100 100 100 100 100 100 86 91 100 98 98 100 100
16 33 5 95 7 96 30 38 97 75 9 5 0 1 18 10 11 84 100 70 10 8 5 5 5 5 7 96 100 100 100 100 100 100 100 100 100 100 100 100 100 100 100